Time,TemperatureF,DewpointF,PressureIn,WindDirection,WindDirectionDegrees,WindSpeedMPH,WindSpeedGustMPH,Humidity,HourlyPrecipIn,Conditions,Clouds,dailyrainin,SoftwareType,DateUTC
2013-01-11 00:01:00,40.1,33.2,30.24,ENE,71,8.0,11.0,76,0.00,,FEW080,0.00,VWS V14.01,2013-01-11 05:01:00,
2013-01-11 00:02:00,40.1,33.2,30.24,ENE,75,7.0,8.0,76,0.00,,FEW080,0.00,VWS V14.01,2013-01-11 05:02:00,
2013-01-11 00:03:00,40.2,33.2,30.25,East,84,6.0,9.0,76,0.00,,FEW080,0.00,VWS V14.01,2013-01-11 05:03:00,
2013-01-11 00:04:00,40.2,33.2,30.24,SE,124,6.0,12.0,76,0.00,,OVC045,0.00,VWS V14.01,2013-01-11 05:04:00,
2013-01-11 00:05:00,40.2,33.2,30.24,SE,126,5.0,9.0,76,0.00,,OVC045,0.00,VWS V14.01,2013-01-11 05:05:00,
2013-01-11 00:06:00,40.2,33.2,30.24,East,79,5.0,8.0,76,0.00,,OVC045,0.00,VWS V14.01,2013-01-11 05:06:00,
2013-01-11 00:07:00,40.2,33.2,30.24,ENE,58,6.0,8.0,76,0.00,,OVC045,0.00,VWS V14.01,2013-01-11 05:07:00,
2013-01-11 00:08:00,40.2,33.2,30.24,East,93,9.0,10.0,76,0.00,,FEW080,0.00,VWS V14.01,2013-01-11 05:08:00,
2013-01-11 00:09:00,40.3,33.3,30.24,ESE,110,8.0,9.0,76,0.00,,OVC045,0.00,VWS V14.01,2013-01-11 05:09:00,
2013-01-11 00:10:00,40.3,33.3,30.24,ENE,75,8.0,9.0,76,0.00,,OVC045,0.00,VWS V14.01,2013-01-11 05:10:00,
2013-01-11 00:11:00,40.3,33.3,30.24,East,79,6.0,9.0,76,0.00,,OVC045,0.00,VWS V14.01,2013-01-11 05:11:00,
2013-01-11 00:12:00,40.3,33.3,30.24,ENE,76,11.0,11.0,76,0.00,,OVC045,0.00,VWS V14.01,2013-01-11 05:12:00,
2013-01-11 00:13:00,40.3,33.3,30.24,ESE,103,5.0,11.0,76,0.00,,FEW080,0.00,VWS V14.01,2013-01-11 05:13:00,
2013-01-11 00:14:00,40.3,33.3,30.24,East,81,8.0,11.0,76,0.00,,OVC045,0.00,VWS V14.01,2013-01-11 05:14:00,
2013-01-11 00:15:00,40.3,33.3,30.24,East,97,8.0,11.0,76,0.00,,OVC045,0.00,VWS V14.01,2013-01-11 05:15:00,
2013-01-11 00:16:00,40.4,33.5,30.24,ENE,78,6.0,9.0,76,0.00,,OVC045,0.00,VWS V14.01,2013-01-11 05:16:00,
2013-01-11 00:17:00,40.4,33.5,30.24,ENE,76,5.0,9.0,76,0.00,,OVC045,0.00,VWS V14.01,2013-01-11 05:17:00,
2013-01-11 00:18:00,40.4,33.5,30.24,ESE,111,8.0,8.0,76,0.00,,FEW080,0.00,VWS V14.01,2013-01-11 05:18:00,
2013-01-11 00:19:00,40.3,33.3,30.24,ENE,64,5.0,9.0,76,0.00,,OVC045,0.00,VWS V14.01,2013-01-11 05:19:00,
2013-01-11 00:20:00,40.4,33.5,30.24,East,82,5.0,10.0,76,0.00,,OVC045,0.00,VWS V14.01,2013-01-11 05:20:00,
2013-01-11 00:21:00,40.3,33.3,30.24,East,79,4.0,8.0,76,0.00,,OVC045,0.00,VWS V14.01,2013-01-11 05:21:00,
2013-01-11 00:22:00,40.4,33.5,30.24,ESE,111,5.0,8.0,76,0.00,,OVC045,0.00,VWS V14.01,2013-01-11 05:22:00,
2013-01-11 00:23:00,40.3,33.3,30.24,East,84,6.0,7.0,76,0.00,,FEW080,0.00,VWS V14.01,2013-01-11 05:23:00,
2013-01-11 00:24:00,40.4,33.5,30.24,East,92,6.0,9.0,76,0.00,,OVC045,0.00,VWS V14.01,2013-01-11 05:24:00,
2013-01-11 00:25:00,40.4,33.5,30.24,ESE,117,5.0,7.0,76,0.00,,OVC045,0.00,VWS V14.01,2013-01-11 05:25:00,
2013-01-11 00:26:00,40.4,33.5,30.24,East,83,4.0,7.0,76,0.00,,OVC045,0.00,VWS V14.01,2013-01-11 05:26:00,
2013-01-11 00:27:00,40.4,33.5,30.24,ESE,120,4.0,5.0,76,0.00,,OVC045,0.00,VWS V14.01,2013-01-11 05:27:00,
2013-01-11 00:28:00,40.4,33.5,30.24,ESE,111,4.0,6.0,76,0.00,,FEW080,0.00,VWS V14.01,2013-01-11 05:28:00,
2013-01-11 00:29:00,40.4,33.5,30.24,ENE,63,4.0,7.0,76,0.00,,OVC045,0.00,VWS V14.01,2013-01-11 05:29:00,
2013-01-11 00:30:00,40.4,33.5,30.24,East,98,4.0,7.0,76,0.00,,OVC045,0.00,VWS V14.01,2013-01-11 05:30:00,
2013-01-11 00:31:00,40.4,33.5,30.24,East,96,5.0,6.0,76,0.00,,OVC045,0.00,VWS V14.01,2013-01-11 05:31:00,
2013-01-11 00:32:00,40.4,33.5,30.24,East,82,5.0,5.0,76,0.00,,OVC045,0.00,VWS V14.01,2013-01-11 05:32:00,
2013-01-11 00:33:00,40.4,33.5,30.24,East,81,3.0,5.0,76,0.00,,FEW080,0.00,VWS V14.01,2013-01-11 05:33:00,
2013-01-11 00:34:00,40.4,33.5,30.24,East,82,4.0,10.0,76,0.00,,OVC045,0.00,VWS V14.01,2013-01-11 05:34:00,
2013-01-11 00:35:00,40.4,33.5,30.24,NE,55,4.0,8.0,76,0.00,,OVC045,0.00,VWS V14.01,2013-01-11 05:35:00,
2013-01-11 00:36:00,40.4,33.5,30.24,ESE,109,3.0,8.0,76,0.00,,OVC045,0.00,VWS V14.01,2013-01-11 05:36:00,
2013-01-11 00:37:00,40.5,33.5,30.23,East,96,4.0,4.0,76,0.00,,OVC045,0.00,VWS V14.01,2013-01-11 05:37:00,
2013-01-11 00:38:00,40.5,33.5,30.23,ESE,104,3.0,4.0,76,0.00,,FEW080,0.00,VWS V14.01,2013-01-11 05:38:00,
2013-01-11 00:39:00,40.5,33.5,30.24,East,99,3.0,5.0,76,0.00,,OVC045,0.00,VWS V14.01,2013-01-11 05:39:00,
2013-01-11 00:41:00,40.5,33.5,30.24,SE,129,1.0,3.0,76,0.00,,OVC045,0.00,VWS V14.01,2013-01-11 05:41:00,
2013-01-11 00:42:00,40.5,33.5,30.24,ESE,107,3.0,3.0,76,0.00,,OVC045,0.00,VWS V14.01,2013-01-11 05:42:00,
2013-01-11 00:43:00,40.6,33.6,30.23,East,87,3.0,6.0,76,0.00,,FEW080,0.00,VWS V14.01,2013-01-11 05:43:00,
2013-01-11 00:44:00,40.6,33.6,30.23,East,86,2.0,6.0,76,0.00,,OVC045,0.00,VWS V14.01,2013-01-11 05:44:00,
2013-01-11 00:45:00,40.6,33.6,30.23,ENE,75,3.0,6.0,76,0.00,,OVC045,0.00,VWS V14.01,2013-01-11 05:45:00,
2013-01-11 00:46:00,40.6,33.6,30.23,East,99,3.0,6.0,76,0.00,,OVC045,0.00,VWS V14.01,2013-01-11 05:46:00,
2013-01-11 00:47:00,40.6,33.6,30.23,ESE,105,6.0,8.0,76,0.00,,OVC045,0.00,VWS V14.01,2013-01-11 05:47:00,
2013-01-11 00:48:00,40.6,33.6,30.23,ENE,70,3.0,8.0,76,0.00,,FEW080,0.00,VWS V14.01,2013-01-11 05:48:00,
2013-01-11 00:49:00,40.6,33.6,30.23,ESE,113,4.0,6.0,76,0.00,,OVC045,0.00,VWS V14.01,2013-01-11 05:49:00,
2013-01-11 00:50:00,40.6,33.6,30.23,SE,125,2.0,6.0,76,0.00,,OVC045,0.00,VWS V14.01,2013-01-11 05:50:00,
2013-01-11 00:51:00,40.6,33.6,30.23,ESE,107,3.0,5.0,76,0.00,,OVC045,0.00,VWS V14.01,2013-01-11 05:51:00,
2013-01-11 00:52:00,40.6,33.6,30.23,East,90,5.0,5.0,76,0.00,,OVC045,0.00,VWS V14.01,2013-01-11 05:52:00,
2013-01-11 00:53:00,40.7,33.7,30.23,ESE,104,5.0,6.0,76,0.00,,FEW080,0.00,VWS V14.01,2013-01-11 05:53:00,
2013-01-11 00:54:00,40.7,33.7,30.23,ENE,72,2.0,6.0,76,0.00,,OVC045,0.00,VWS V14.01,2013-01-11 05:54:00,
2013-01-11 00:55:00,40.7,33.7,30.23,ESE,106,2.0,6.0,76,0.00,,OVC045,0.00,VWS V14.01,2013-01-11 05:55:00,
2013-01-11 00:56:00,40.7,33.7,30.22,ENE,74,3.0,4.0,76,0.00,,OVC045,0.00,VWS V14.01,2013-01-11 05:56:00,
2013-01-11 00:57:00,40.7,33.7,30.23,ENE,75,1.0,4.0,76,0.00,,OVC045,0.00,VWS V14.01,2013-01-11 05:57:00,
2013-01-11 00:58:00,40.7,33.7,30.22,ENE,74,2.0,4.0,76,0.00,,FEW080,0.00,VWS V14.01,2013-01-11 05:58:00,
2013-01-11 00:59:00,40.7,33.7,30.22,East,89,4.0,4.0,76,0.00,,OVC045,0.00,VWS V14.01,2013-01-11 05:59:00,
2013-01-11 01:00:00,40.6,33.6,30.23,SE,128,2.0,4.0,76,0.00,,OVC045,0.00,VWS V14.01,2013-01-11 06:00:00,
2013-01-11 01:01:00,40.7,33.7,30.23,East,86,1.0,2.0,76,0.00,,OVC045,0.00,VWS V14.01,2013-01-11 06:01:00,
2013-01-11 01:02:00,40.7,33.7,30.23,ENE,62,1.0,2.0,76,0.00,,OVC045,0.00,VWS V14.01,2013-01-11 06:02:00,
2013-01-11 01:03:00,40.7,33.7,30.23,East,89,1.0,2.0,76,0.00,,OVC100,0.00,VWS V14.01,2013-01-11 06:03:00,
2013-01-11 01:04:00,40.7,33.7,30.23,East,89,0.0,1.0,76,0.00,,OVC045,0.00,VWS V14.01,2013-01-11 06:04:00,
2013-01-11 01:05:00,40.7,33.7,30.23,ENE,75,1.0,1.0,76,0.00,,OVC045,0.00,VWS V14.01,2013-01-11 06:05:00,
2013-01-11 01:06:00,40.7,33.7,30.23,ESE,104,4.0,4.0,76,0.00,,OVC045,0.00,VWS V14.01,2013-01-11 06:06:00,
2013-01-11 01:07:00,40.7,33.7,30.23,ENE,60,3.0,4.0,76,0.00,,OVC045,0.00,VWS V14.01,2013-01-11 06:07:00,
2013-01-11 01:08:00,40.7,33.7,30.23,NE,53,2.0,3.0,76,0.00,,OVC100,0.00,VWS V14.01,2013-01-11 06:08:00,
2013-01-11 01:09:00,40.8,33.8,30.23,ENE,72,2.0,3.0,76,0.00,,OVC045,0.00,VWS V14.01,2013-01-11 06:09:00,
2013-01-11 01:10:00,40.8,33.8,30.23,East,84,3.0,3.0,76,0.00,,OVC045,0.00,VWS V14.01,2013-01-11 06:10:00,
2013-01-11 01:11:00,40.8,33.8,30.23,ENE,78,2.0,3.0,76,0.00,,OVC045,0.00,VWS V14.01,2013-01-11 06:11:00,
2013-01-11 01:12:00,40.8,33.8,30.22,East,100,2.0,3.0,76,0.00,,OVC045,0.00,VWS V14.01,2013-01-11 06:12:00,
2013-01-11 01:13:00,40.8,33.8,30.23,NE,48,3.0,4.0,76,0.00,,OVC100,0.00,VWS V14.01,2013-01-11 06:13:00,
2013-01-11 01:14:00,40.8,33.8,30.23,ENE,60,3.0,3.0,76,0.00,,OVC045,0.00,VWS V14.01,2013-01-11 06:14:00,
2013-01-11 01:15:00,40.8,33.8,30.22,East,90,3.0,4.0,76,0.00,,OVC045,0.00,VWS V14.01,2013-01-11 06:15:00,
2013-01-11 01:16:00,40.9,33.9,30.22,ESE,111,3.0,5.0,76,0.00,,OVC045,0.00,VWS V14.01,2013-01-11 06:16:00,
2013-01-11 01:17:00,40.9,33.9,30.23,ENE,62,3.0,4.0,76,0.00,,OVC045,0.00,VWS V14.01,2013-01-11 06:17:00,
2013-01-11 01:18:00,40.9,33.9,30.23,East,94,2.0,4.0,76,0.00,,OVC100,0.00,VWS V14.01,2013-01-11 06:18:00,
2013-01-11 01:19:00,40.9,33.9,30.23,ENE,72,3.0,4.0,76,0.00,,OVC045,0.00,VWS V14.01,2013-01-11 06:19:00,
2013-01-11 01:20:00,41.0,34.0,30.23,ESE,106,3.0,4.0,76,0.00,,OVC045,0.00,VWS V14.01,2013-01-11 06:20:00,
2013-01-11 01:21:00,41.0,34.0,30.23,ENE,65,4.0,4.0,76,0.00,,OVC045,0.00,VWS V14.01,2013-01-11 06:21:00,
2013-01-11 01:22:00,41.0,34.0,30.22,East,96,3.0,4.0,76,0.00,,OVC045,0.00,VWS V14.01,2013-01-11 06:22:00,
2013-01-11 01:23:00,41.0,34.0,30.22,ENE,67,5.0,5.0,76,0.00,,OVC100,0.00,VWS V14.01,2013-01-11 06:23:00,
2013-01-11 01:24:00,41.0,34.0,30.22,East,82,5.0,6.0,76,0.00,,OVC045,0.00,VWS V14.01,2013-01-11 06:24:00,
2013-01-11 01:25:00,41.1,34.1,30.23,East,83,6.0,6.0,76,0.00,,OVC045,0.00,VWS V14.01,2013-01-11 06:25:00,
2013-01-11 01:26:00,41.1,34.1,30.23,East,93,4.0,6.0,76,0.00,,OVC045,0.00,VWS V14.01,2013-01-11 06:26:00,
2013-01-11 01:27:00,41.1,34.1,30.23,East,89,4.0,6.0,76,0.00,,OVC045,0.00,VWS V14.01,2013-01-11 06:27:00,
2013-01-11 01:28:00,41.1,34.1,30.23,ESE,106,3.0,5.0,76,0.00,,OVC100,0.00,VWS V14.01,2013-01-11 06:28:00,
2013-01-11 01:29:00,41.1,34.1,30.23,ESE,113,3.0,5.0,76,0.00,,OVC045,0.00,VWS V14.01,2013-01-11 06:29:00,
2013-01-11 01:30:00,41.2,34.2,30.23,ESE,108,4.0,5.0,76,0.00,,OVC045,0.00,VWS V14.01,2013-01-11 06:30:00,
2013-01-11 01:31:00,41.1,34.1,30.22,NE,47,4.0,6.0,76,0.00,,OVC045,0.00,VWS V14.01,2013-01-11 06:31:00,
2013-01-11 01:32:00,41.2,34.2,30.22,East,79,5.0,6.0,76,0.00,,OVC045,0.00,VWS V14.01,2013-01-11 06:32:00,
2013-01-11 01:33:00,41.2,34.2,30.23,East,89,4.0,5.0,76,0.00,,OVC100,0.00,VWS V14.01,2013-01-11 06:33:00,
2013-01-11 01:34:00,41.2,34.2,30.23,East,100,6.0,7.0,76,0.00,,OVC045,0.00,VWS V14.01,2013-01-11 06:34:00,
2013-01-11 01:35:00,41.2,34.2,30.23,East,84,5.0,7.0,76,0.00,,OVC045,0.00,VWS V14.01,2013-01-11 06:35:00,
2013-01-11 01:36:00,41.2,34.2,30.23,East,86,5.0,6.0,76,0.00,,OVC045,0.00,VWS V14.01,2013-01-11 06:36:00,
2013-01-11 01:37:00,41.2,34.2,30.22,East,85,4.0,6.0,76,0.00,,OVC045,0.00,VWS V14.01,2013-01-11 06:37:00,
2013-01-11 01:38:00,41.2,34.2,30.22,East,98,4.0,7.0,76,0.00,,OVC100,0.00,VWS V14.01,2013-01-11 06:38:00,
2013-01-11 01:39:00,41.2,34.2,30.22,East,89,5.0,6.0,76,0.00,,OVC045,0.00,VWS V14.01,2013-01-11 06:39:00,
2013-01-11 01:40:00,41.2,34.5,30.22,ENE,68,4.0,7.0,77,0.00,,OVC045,0.00,VWS V14.01,2013-01-11 06:40:00,
2013-01-11 01:41:00,41.2,34.5,30.22,ENE,75,5.0,5.0,77,0.00,,OVC045,0.00,VWS V14.01,2013-01-11 06:41:00,
2013-01-11 01:42:00,41.2,34.5,30.22,ESE,111,5.0,5.0,77,0.00,,OVC045,0.00,VWS V14.01,2013-01-11 06:42:00,
2013-01-11 01:43:00,41.2,34.5,30.23,East,82,4.0,5.0,77,0.00,,OVC100,0.00,VWS V14.01,2013-01-11 06:43:00,
2013-01-11 01:44:00,41.2,34.5,30.23,East,96,3.0,6.0,77,0.00,,OVC045,0.00,VWS V14.01,2013-01-11 06:44:00,
2013-01-11 01:45:00,41.2,34.5,30.23,East,84,3.0,6.0,77,0.00,,OVC045,0.00,VWS V14.01,2013-01-11 06:45:00,
2013-01-11 01:46:00,41.2,34.5,30.23,East,82,4.0,4.0,77,0.00,,OVC045,0.00,VWS V14.01,2013-01-11 06:46:00,
2013-01-11 01:47:00,41.2,34.5,30.22,East,86,5.0,5.0,77,0.00,,OVC045,0.00,VWS V14.01,2013-01-11 06:47:00,
2013-01-11 01:48:00,41.3,34.7,30.22,ESE,108,3.0,5.0,77,0.00,,OVC100,0.00,VWS V14.01,2013-01-11 06:48:00,
2013-01-11 01:49:00,41.3,34.7,30.22,East,91,5.0,6.0,77,0.00,,OVC045,0.00,VWS V14.01,2013-01-11 06:49:00,
2013-01-11 01:50:00,41.3,34.7,30.22,East,90,3.0,6.0,77,0.00,,OVC045,0.00,VWS V14.01,2013-01-11 06:50:00,
2013-01-11 01:51:00,41.3,34.7,30.22,ESE,105,3.0,6.0,77,0.00,,OVC045,0.00,VWS V14.01,2013-01-11 06:51:00,
2013-01-11 01:52:00,41.3,34.7,30.22,East,79,3.0,4.0,77,0.00,,OVC045,0.00,VWS V14.01,2013-01-11 06:52:00,
2013-01-11 01:53:00,41.3,34.7,30.22,ESE,103,3.0,3.0,77,0.00,,OVC100,0.00,VWS V14.01,2013-01-11 06:53:00,
2013-01-11 01:54:00,41.3,34.7,30.22,ENE,69,3.0,5.0,77,0.00,,OVC045,0.00,VWS V14.01,2013-01-11 06:54:00,
2013-01-11 01:55:00,41.4,34.7,30.22,East,84,2.0,5.0,77,0.00,,OVC045,0.00,VWS V14.01,2013-01-11 06:55:00,
2013-01-11 01:56:00,41.4,34.7,30.22,East,96,3.0,4.0,77,0.00,,OVC045,0.00,VWS V14.01,2013-01-11 06:56:00,
2013-01-11 01:57:00,41.4,35.1,30.22,ENE,76,3.0,4.0,78,0.00,,OVC045,0.00,VWS V14.01,2013-01-11 06:57:00,
2013-01-11 01:58:00,41.4,35.1,30.22,East,80,3.0,5.0,78,0.00,,OVC100,0.00,VWS V14.01,2013-01-11 06:58:00,
2013-01-11 01:59:00,41.4,35.1,30.22,ENE,75,3.0,5.0,78,0.00,,OVC045,0.00,VWS V14.01,2013-01-11 06:59:00,
2013-01-11 02:00:00,41.4,35.1,30.22,ENE,60,3.0,5.0,78,0.00,,OVC045,0.00,VWS V14.01,2013-01-11 07:00:00,
2013-01-11 02:01:00,41.5,35.2,30.22,East,79,3.0,3.0,78,0.00,,OVC045,0.00,VWS V14.01,2013-01-11 07:01:00,
2013-01-11 02:02:00,41.5,35.2,30.22,ESE,110,5.0,5.0,78,0.00,,OVC045,0.00,VWS V14.01,2013-01-11 07:02:00,
2013-01-11 02:03:00,41.5,35.2,30.22,ENE,62,3.0,6.0,78,0.00,,-RA,0.00,VWS V14.01,2013-01-11 07:03:00,
2013-01-11 02:04:00,41.5,35.2,30.22,East,98,4.0,6.0,78,0.00,,OVC045,0.00,VWS V14.01,2013-01-11 07:04:00,
2013-01-11 02:05:00,41.6,34.9,30.22,ENE,68,4.0,6.0,77,0.00,,OVC045,0.00,VWS V14.01,2013-01-11 07:05:00,
2013-01-11 02:06:00,41.6,34.9,30.22,East,95,4.0,6.0,77,0.00,,OVC045,0.00,VWS V14.01,2013-01-11 07:06:00,
2013-01-11 02:07:00,41.6,34.9,30.22,ESE,103,3.0,4.0,77,0.00,,OVC045,0.00,VWS V14.01,2013-01-11 07:07:00,
2013-01-11 02:08:00,41.7,35.0,30.22,ESE,105,3.0,4.0,77,0.00,,-RA,0.00,VWS V14.01,2013-01-11 07:08:00,
2013-01-11 02:09:00,41.7,35.0,30.22,East,94,4.0,5.0,77,0.00,,OVC045,0.00,VWS V14.01,2013-01-11 07:09:00,
2013-01-11 02:10:00,41.7,35.0,30.22,East,86,4.0,5.0,77,0.00,,OVC045,0.00,VWS V14.01,2013-01-11 07:10:00,
2013-01-11 02:11:00,41.8,35.1,30.22,ENE,65,4.0,5.0,77,0.00,,OVC045,0.00,VWS V14.01,2013-01-11 07:11:00,
2013-01-11 02:12:00,41.8,35.1,30.22,ENE,73,3.0,5.0,77,0.00,,OVC045,0.00,VWS V14.01,2013-01-11 07:12:00,
2013-01-11 02:13:00,41.8,35.1,30.21,East,95,4.0,4.0,77,0.00,,-RA,0.00,VWS V14.01,2013-01-11 07:13:00,
2013-01-11 02:14:00,41.9,35.2,30.21,ENE,74,4.0,6.0,77,0.00,,OVC045,0.00,VWS V14.01,2013-01-11 07:14:00,
2013-01-11 02:15:00,41.9,35.2,30.21,ENE,63,4.0,5.0,77,0.00,,OVC045,0.00,VWS V14.01,2013-01-11 07:15:00,
2013-01-11 02:16:00,41.9,35.2,30.21,ENE,71,5.0,7.0,77,0.00,,OVC045,0.00,VWS V14.01,2013-01-11 07:16:00,
2013-01-11 02:17:00,42.0,35.3,30.21,East,86,6.0,7.0,77,0.00,,OVC045,0.00,VWS V14.01,2013-01-11 07:17:00,
2013-01-11 02:18:00,42.0,35.0,30.21,East,82,5.0,8.0,76,0.00,,-RA,0.00,VWS V14.01,2013-01-11 07:18:00,
2013-01-11 02:19:00,42.1,35.1,30.21,East,91,5.0,7.0,76,0.00,,OVC045,0.00,VWS V14.01,2013-01-11 07:19:00,
2013-01-11 02:20:00,42.2,35.5,30.21,ESE,103,4.0,6.0,77,0.00,,OVC045,0.00,VWS V14.01,2013-01-11 07:20:00,
2013-01-11 02:21:00,42.2,35.5,30.21,ESE,106,5.0,6.0,77,0.00,,OVC045,0.00,VWS V14.01,2013-01-11 07:21:00,
2013-01-11 02:22:00,42.2,35.5,30.21,East,96,6.0,7.0,77,0.00,,OVC045,0.00,VWS V14.01,2013-01-11 07:22:00,
2013-01-11 02:23:00,42.3,35.6,30.21,East,88,4.0,7.0,77,0.00,,-RA,0.00,VWS V14.01,2013-01-11 07:23:00,
2013-01-11 02:24:00,42.3,35.6,30.21,ESE,102,8.0,8.0,77,0.00,,OVC045,0.00,VWS V14.01,2013-01-11 07:24:00,
2013-01-11 02:25:00,42.3,35.6,30.20,ENE,77,7.0,8.0,77,0.00,,OVC045,0.00,VWS V14.01,2013-01-11 07:25:00,
2013-01-11 02:26:00,42.4,35.7,30.20,ENE,76,6.0,8.0,77,0.00,,OVC045,0.00,VWS V14.01,2013-01-11 07:26:00,
2013-01-11 02:27:00,42.4,35.7,30.20,East,91,7.0,7.0,77,0.00,,OVC045,0.00,VWS V14.01,2013-01-11 07:27:00,
2013-01-11 02:28:00,42.4,35.7,30.20,East,84,5.0,9.0,77,0.00,,-RA,0.00,VWS V14.01,2013-01-11 07:28:00,
2013-01-11 02:29:00,42.4,35.7,30.20,East,90,3.0,8.0,77,0.00,,OVC045,0.00,VWS V14.01,2013-01-11 07:29:00,
2013-01-11 02:30:00,42.4,35.7,30.20,East,96,7.0,7.0,77,0.00,,OVC045,0.00,VWS V14.01,2013-01-11 07:30:00,
2013-01-11 02:31:00,42.5,35.8,30.20,ESE,122,7.0,9.0,77,0.00,,OVC045,0.00,VWS V14.01,2013-01-11 07:31:00,
2013-01-11 02:32:00,42.5,35.8,30.20,East,79,6.0,8.0,77,0.00,,OVC045,0.00,VWS V14.01,2013-01-11 07:32:00,
2013-01-11 02:33:00,42.5,35.8,30.20,ESE,103,5.0,8.0,77,0.00,,-RA,0.00,VWS V14.01,2013-01-11 07:33:00,
2013-01-11 02:34:00,42.6,35.9,30.20,ENE,69,7.0,7.0,77,0.00,,OVC045,0.00,VWS V14.01,2013-01-11 07:34:00,
2013-01-11 02:35:00,42.6,35.9,30.20,East,82,5.0,8.0,77,0.00,,OVC045,0.00,VWS V14.01,2013-01-11 07:35:00,
2013-01-11 02:36:00,42.6,35.9,30.20,East,81,4.0,8.0,77,0.00,,OVC045,0.00,VWS V14.01,2013-01-11 07:36:00,
2013-01-11 02:37:00,42.7,36.0,30.19,East,98,6.0,7.0,77,0.00,,OVC045,0.00,VWS V14.01,2013-01-11 07:37:00,
2013-01-11 02:38:00,42.7,36.0,30.19,ESE,107,6.0,10.0,77,0.00,,-RA,0.00,VWS V14.01,2013-01-11 07:38:00,
2013-01-11 02:39:00,42.7,36.0,30.19,East,84,4.0,7.0,77,0.00,,OVC045,0.00,VWS V14.01,2013-01-11 07:39:00,
2013-01-11 02:40:00,42.7,36.0,30.19,ESE,104,6.0,7.0,77,0.00,,OVC045,0.00,VWS V14.01,2013-01-11 07:40:00,
2013-01-11 02:41:00,42.7,36.0,30.19,ESE,111,5.0,7.0,77,0.00,,OVC045,0.00,VWS V14.01,2013-01-11 07:41:00,
2013-01-11 02:42:00,42.8,36.1,30.19,SE,124,5.0,7.0,77,0.00,,OVC045,0.00,VWS V14.01,2013-01-11 07:42:00,
2013-01-11 02:43:00,42.8,36.1,30.19,ESE,103,5.0,7.0,77,0.00,,-RA,0.00,VWS V14.01,2013-01-11 07:43:00,
2013-01-11 02:44:00,42.9,36.2,30.19,ENE,75,5.0,6.0,77,0.00,,OVC045,0.00,VWS V14.01,2013-01-11 07:44:00,
2013-01-11 02:45:00,42.9,36.2,30.19,East,84,8.0,9.0,77,0.00,,OVC045,0.00,VWS V14.01,2013-01-11 07:45:00,
2013-01-11 02:46:00,42.9,35.9,30.19,East,91,7.0,9.0,76,0.00,,OVC045,0.00,VWS V14.01,2013-01-11 07:46:00,
2013-01-11 02:47:00,43.0,36.3,30.18,ENE,70,7.0,8.0,77,0.00,,OVC045,0.00,VWS V14.01,2013-01-11 07:47:00,
2013-01-11 02:48:00,43.0,36.3,30.18,East,83,5.0,8.0,77,0.00,,-RA,0.00,VWS V14.01,2013-01-11 07:48:00,
2013-01-11 02:49:00,43.0,36.3,30.18,ENE,77,6.0,10.0,77,0.00,,OVC045,0.00,VWS V14.01,2013-01-11 07:49:00,
2013-01-11 02:50:00,43.0,36.3,30.18,ESE,122,3.0,7.0,77,0.00,,OVC045,0.00,VWS V14.01,2013-01-11 07:50:00,
2013-01-11 02:51:00,43.1,36.4,30.18,East,79,5.0,8.0,77,0.00,,OVC045,0.00,VWS V14.01,2013-01-11 07:51:00,
2013-01-11 02:52:00,43.1,36.4,30.19,SE,126,6.0,8.0,77,0.00,,OVC045,0.00,VWS V14.01,2013-01-11 07:52:00,
2013-01-11 02:53:00,43.1,36.4,30.19,East,93,6.0,7.0,77,0.00,,-RA,0.00,VWS V14.01,2013-01-11 07:53:00,
2013-01-11 02:54:00,43.1,36.4,30.19,ESE,119,5.0,8.0,77,0.00,,OVC045,0.00,VWS V14.01,2013-01-11 07:54:00,
2013-01-11 02:55:00,43.1,36.4,30.19,ESE,105,7.0,7.0,77,0.00,,OVC045,0.00,VWS V14.01,2013-01-11 07:55:00,
2013-01-11 02:56:00,43.1,36.4,30.19,East,96,4.0,7.0,77,0.00,,OVC045,0.00,VWS V14.01,2013-01-11 07:56:00,
2013-01-11 02:57:00,43.2,36.5,30.19,ESE,111,3.0,6.0,77,0.00,,OVC045,0.00,VWS V14.01,2013-01-11 07:57:00,
2013-01-11 02:58:00,43.2,36.5,30.19,ESE,115,4.0,6.0,77,0.00,,-RA,0.00,VWS V14.01,2013-01-11 07:58:00,
2013-01-11 02:59:00,43.2,36.5,30.19,ESE,110,7.0,7.0,77,0.00,,OVC045,0.00,VWS V14.01,2013-01-11 07:59:00,
2013-01-11 03:00:00,43.2,36.5,30.19,ESE,107,3.0,7.0,77,0.00,,OVC045,0.00,VWS V14.01,2013-01-11 08:00:00,
2013-01-11 03:01:00,43.2,36.5,30.19,ESE,107,6.0,7.0,77,0.00,,OVC045,0.00,VWS V14.01,2013-01-11 08:01:00,
2013-01-11 03:02:00,43.3,36.3,30.19,ESE,110,8.0,8.0,76,0.00,,OVC045,0.00,VWS V14.01,2013-01-11 08:02:00,
2013-01-11 03:03:00,43.3,36.3,30.18,ENE,69,7.0,9.0,76,0.00,,OVC120,0.00,VWS V14.01,2013-01-11 08:03:00,
2013-01-11 03:04:00,43.4,36.3,30.19,SE,127,4.0,12.0,76,0.00,,OVC045,0.00,VWS V14.01,2013-01-11 08:04:00,
2013-01-11 03:05:00,43.5,36.5,30.19,East,91,6.0,10.0,76,0.00,,OVC045,0.00,VWS V14.01,2013-01-11 08:05:00,
2013-01-11 03:06:00,43.6,36.5,30.19,ESE,103,8.0,10.0,76,0.00,,OVC045,0.00,VWS V14.01,2013-01-11 08:06:00,
2013-01-11 03:07:00,43.6,36.5,30.18,East,94,8.0,11.0,76,0.00,,OVC045,0.00,VWS V14.01,2013-01-11 08:07:00,
2013-01-11 03:08:00,43.6,36.5,30.18,ESE,108,9.0,11.0,76,0.00,,OVC120,0.00,VWS V14.01,2013-01-11 08:08:00,
2013-01-11 03:09:00,43.7,36.6,30.18,ESE,119,5.0,8.0,76,0.00,,OVC045,0.00,VWS V14.01,2013-01-11 08:09:00,
2013-01-11 03:10:00,43.6,36.5,30.18,ENE,57,5.0,8.0,76,0.00,,OVC045,0.00,VWS V14.01,2013-01-11 08:10:00,
2013-01-11 03:11:00,43.7,36.6,30.18,ESE,115,5.0,9.0,76,0.00,,OVC045,0.00,VWS V14.01,2013-01-11 08:11:00,
2013-01-11 03:12:00,43.7,36.6,30.18,East,99,4.0,9.0,76,0.00,,OVC045,0.00,VWS V14.01,2013-01-11 08:12:00,
2013-01-11 03:13:00,43.7,36.6,30.18,East,79,3.0,9.0,76,0.00,,OVC120,0.00,VWS V14.01,2013-01-11 08:13:00,
2013-01-11 03:14:00,43.7,36.6,30.18,ESE,103,6.0,8.0,76,0.00,,OVC045,0.00,VWS V14.01,2013-01-11 08:14:00,
2013-01-11 03:15:00,43.7,36.6,30.19,SE,128,3.0,8.0,76,0.00,,OVC045,0.00,VWS V14.01,2013-01-11 08:15:00,
2013-01-11 03:16:00,43.7,37.0,30.19,ENE,76,5.0,7.0,77,0.00,,OVC045,0.00,VWS V14.01,2013-01-11 08:16:00,
2013-01-11 03:17:00,43.7,37.0,30.19,ESE,102,6.0,7.0,77,0.00,,OVC045,0.00,VWS V14.01,2013-01-11 08:17:00,
2013-01-11 03:18:00,43.7,37.0,30.18,ESE,113,5.0,7.0,77,0.00,,OVC120,0.00,VWS V14.01,2013-01-11 08:18:00,
2013-01-11 03:19:00,43.7,37.0,30.18,East,96,5.0,7.0,77,0.00,,OVC045,0.00,VWS V14.01,2013-01-11 08:19:00,
2013-01-11 03:20:00,43.7,37.0,30.18,ESE,105,8.0,8.0,77,0.00,,OVC045,0.00,VWS V14.01,2013-01-11 08:20:00,
2013-01-11 03:21:00,43.7,37.0,30.18,ESE,119,6.0,8.0,77,0.00,,OVC045,0.00,VWS V14.01,2013-01-11 08:21:00,
2013-01-11 03:22:00,43.8,37.1,30.18,ENE,73,3.0,7.0,77,0.00,,OVC045,0.00,VWS V14.01,2013-01-11 08:22:00,
2013-01-11 03:23:00,43.7,37.0,30.18,East,80,5.0,6.0,77,0.00,,OVC120,0.00,VWS V14.01,2013-01-11 08:23:00,
2013-01-11 03:24:00,43.8,37.1,30.18,ENE,76,5.0,7.0,77,0.00,,OVC045,0.00,VWS V14.01,2013-01-11 08:24:00,
2013-01-11 03:25:00,43.8,37.1,30.18,East,98,4.0,7.0,77,0.00,,OVC045,0.00,VWS V14.01,2013-01-11 08:25:00,
2013-01-11 03:26:00,43.9,37.2,30.18,East,83,4.0,8.0,77,0.00,,OVC045,0.00,VWS V14.01,2013-01-11 08:26:00,
2013-01-11 03:27:00,43.9,37.2,30.18,SE,124,5.0,7.0,77,0.00,,OVC045,0.00,VWS V14.01,2013-01-11 08:27:00,
2013-01-11 03:28:00,43.9,37.2,30.18,East,84,6.0,7.0,77,0.00,,OVC120,0.00,VWS V14.01,2013-01-11 08:28:00,
2013-01-11 03:29:00,43.9,37.2,30.18,East,98,5.0,5.0,77,0.00,,OVC045,0.00,VWS V14.01,2013-01-11 08:29:00,
2013-01-11 03:30:00,44.0,37.3,30.18,ESE,110,4.0,5.0,77,0.00,,OVC045,0.00,VWS V14.01,2013-01-11 08:30:00,
2013-01-11 03:31:00,44.0,37.3,30.18,East,94,3.0,5.0,77,0.00,,OVC045,0.00,VWS V14.01,2013-01-11 08:31:00,
2013-01-11 03:32:00,44.1,37.4,30.18,ESE,123,3.0,4.0,77,0.00,,OVC045,0.00,VWS V14.01,2013-01-11 08:32:00,
2013-01-11 03:33:00,44.1,37.4,30.18,ESE,108,3.0,4.0,77,0.00,,OVC120,0.00,VWS V14.01,2013-01-11 08:33:00,
2013-01-11 03:34:00,44.1,37.4,30.18,ESE,106,3.0,6.0,77,0.00,,OVC045,0.00,VWS V14.01,2013-01-11 08:34:00,
2013-01-11 03:35:00,44.1,37.4,30.18,ESE,102,4.0,5.0,77,0.00,,OVC045,0.00,VWS V14.01,2013-01-11 08:35:00,
2013-01-11 03:36:00,44.2,37.5,30.18,East,92,6.0,6.0,77,0.00,,OVC045,0.00,VWS V14.01,2013-01-11 08:36:00,
2013-01-11 03:37:00,44.2,37.5,30.18,ENE,73,5.0,8.0,77,0.00,,OVC045,0.00,VWS V14.01,2013-01-11 08:37:00,
2013-01-11 03:38:00,44.2,37.5,30.18,East,80,4.0,8.0,77,0.00,,OVC120,0.00,VWS V14.01,2013-01-11 08:38:00,
2013-01-11 03:39:00,44.3,37.6,30.18,East,79,5.0,8.0,77,0.00,,OVC045,0.00,VWS V14.01,2013-01-11 08:39:00,
2013-01-11 03:40:00,44.3,37.6,30.18,East,95,4.0,7.0,77,0.00,,OVC045,0.00,VWS V14.01,2013-01-11 08:40:00,
2013-01-11 03:41:00,44.3,37.6,30.18,ESE,103,4.0,6.0,77,0.00,,OVC045,0.00,VWS V14.01,2013-01-11 08:41:00,
2013-01-11 03:42:00,44.3,37.6,30.17,East,92,6.0,6.0,77,0.00,,OVC045,0.00,VWS V14.01,2013-01-11 08:42:00,
2013-01-11 03:43:00,44.4,37.7,30.18,East,84,3.0,6.0,77,0.00,,OVC120,0.00,VWS V14.01,2013-01-11 08:43:00,
2013-01-11 03:44:00,44.4,37.7,30.18,East,83,6.0,7.0,77,0.00,,OVC045,0.00,VWS V14.01,2013-01-11 08:44:00,
2013-01-11 03:45:00,44.3,37.9,30.17,East,97,5.0,6.0,78,0.00,,OVC045,0.00,VWS V14.01,2013-01-11 08:45:00,
2013-01-11 03:46:00,44.4,38.0,30.17,ENE,74,4.0,6.0,78,0.00,,OVC045,0.00,VWS V14.01,2013-01-11 08:46:00,
2013-01-11 03:47:00,44.4,38.0,30.17,ESE,103,3.0,6.0,78,0.00,,OVC045,0.00,VWS V14.01,2013-01-11 08:47:00,
2013-01-11 03:48:00,44.4,38.0,30.17,ESE,111,6.0,6.0,78,0.00,,OVC120,0.00,VWS V14.01,2013-01-11 08:48:00,
2013-01-11 03:49:00,44.3,38.2,30.17,East,89,2.0,6.0,79,0.01,,OVC045,0.01,VWS V14.01,2013-01-11 08:49:00,
2013-01-11 03:50:00,44.3,38.2,30.17,East,101,3.0,6.0,79,0.01,,OVC045,0.01,VWS V14.01,2013-01-11 08:50:00,
2013-01-11 03:51:00,44.3,38.2,30.17,ESE,110,3.0,6.0,79,0.01,,OVC045,0.01,VWS V14.01,2013-01-11 08:51:00,
2013-01-11 03:52:00,44.3,38.2,30.17,ESE,118,3.0,4.0,79,0.01,,OVC045,0.01,VWS V14.01,2013-01-11 08:52:00,
2013-01-11 03:53:00,44.3,38.5,30.17,ENE,76,4.0,5.0,80,0.01,,OVC120,0.01,VWS V14.01,2013-01-11 08:53:00,
2013-01-11 03:54:00,44.3,38.5,30.17,East,94,5.0,5.0,80,0.01,,OVC045,0.01,VWS V14.01,2013-01-11 08:54:00,
2013-01-11 03:55:00,44.2,38.4,30.17,ENE,65,3.0,6.0,80,0.02,,OVC045,0.02,VWS V14.01,2013-01-11 08:55:00,
2013-01-11 03:56:00,44.2,38.4,30.17,ESE,108,3.0,6.0,80,0.02,,OVC045,0.02,VWS V14.01,2013-01-11 08:56:00,
2013-01-11 03:57:00,44.2,38.8,30.17,East,84,5.0,7.0,81,0.02,,OVC045,0.02,VWS V14.01,2013-01-11 08:57:00,
2013-01-11 03:58:00,44.2,38.8,30.17,ENE,67,3.0,7.0,81,0.02,,OVC120,0.02,VWS V14.01,2013-01-11 08:58:00,
2013-01-11 03:59:00,44.1,38.7,30.17,ENE,72,5.0,6.0,81,0.03,,OVC045,0.03,VWS V14.01,2013-01-11 08:59:00,
2013-01-11 04:00:00,44.1,39.0,30.17,East,86,6.0,6.0,82,0.04,,OVC045,0.04,VWS V14.01,2013-01-11 09:00:00,
2013-01-11 04:01:00,44.1,39.0,30.16,ENE,70,5.0,9.0,82,0.05,,OVC045,0.05,VWS V14.01,2013-01-11 09:01:00,
2013-01-11 04:02:00,44.0,38.9,30.16,ENE,77,4.0,8.0,82,0.05,,OVC045,0.05,VWS V14.01,2013-01-11 09:02:00,
2013-01-11 04:03:00,44.0,39.2,30.16,ENE,66,6.0,8.0,83,0.05,,-RA,0.05,VWS V14.01,2013-01-11 09:03:00,
2013-01-11 04:04:00,43.9,39.1,30.16,East,89,7.0,10.0,83,0.06,,OVC045,0.06,VWS V14.01,2013-01-11 09:04:00,
2013-01-11 04:05:00,43.9,39.4,30.15,East,79,5.0,10.0,84,0.06,,OVC045,0.06,VWS V14.01,2013-01-11 09:05:00,
2013-01-11 04:06:00,43.8,39.3,30.15,ENE,63,5.0,10.0,84,0.06,,OVC045,0.06,VWS V14.01,2013-01-11 09:06:00,
2013-01-11 04:07:00,43.8,39.3,30.15,East,89,4.0,6.0,84,0.06,,OVC045,0.06,VWS V14.01,2013-01-11 09:07:00,
2013-01-11 04:08:00,43.7,39.2,30.15,East,86,6.0,8.0,84,0.06,,-RA,0.06,VWS V14.01,2013-01-11 09:08:00,
2013-01-11 04:09:00,43.7,39.5,30.15,ENE,77,5.0,6.0,85,0.06,,OVC045,0.06,VWS V14.01,2013-01-11 09:09:00,
2013-01-11 04:10:00,43.8,39.6,30.16,ENE,78,3.0,5.0,85,0.06,,OVC045,0.06,VWS V14.01,2013-01-11 09:10:00,
2013-01-11 04:11:00,43.8,39.6,30.16,ENE,72,3.0,4.0,85,0.06,,OVC045,0.06,VWS V14.01,2013-01-11 09:11:00,
2013-01-11 04:12:00,43.8,39.6,30.16,East,92,5.0,7.0,85,0.06,,OVC045,0.06,VWS V14.01,2013-01-11 09:12:00,
2013-01-11 04:13:00,43.8,39.6,30.16,East,97,5.0,7.0,85,0.06,,-RA,0.06,VWS V14.01,2013-01-11 09:13:00,
2013-01-11 04:14:00,43.8,39.6,30.16,ESE,103,5.0,7.0,85,0.06,,OVC045,0.06,VWS V14.01,2013-01-11 09:14:00,
2013-01-11 04:15:00,43.8,39.6,30.16,ESE,111,4.0,7.0,85,0.06,,OVC045,0.06,VWS V14.01,2013-01-11 09:15:00,
2013-01-11 04:16:00,43.8,39.9,30.16,East,86,6.0,8.0,86,0.06,,OVC045,0.06,VWS V14.01,2013-01-11 09:16:00,
2013-01-11 04:17:00,43.8,39.9,30.15,ENE,77,6.0,8.0,86,0.06,,OVC045,0.06,VWS V14.01,2013-01-11 09:17:00,
2013-01-11 04:18:00,43.8,39.9,30.15,East,86,9.0,9.0,86,0.06,,-RA,0.06,VWS V14.01,2013-01-11 09:18:00,
2013-01-11 04:19:00,43.9,40.0,30.15,ESE,120,7.0,8.0,86,0.07,,OVC045,0.07,VWS V14.01,2013-01-11 09:19:00,
2013-01-11 04:20:00,43.9,40.0,30.15,ENE,72,7.0,9.0,86,0.07,,OVC045,0.07,VWS V14.01,2013-01-11 09:20:00,
2013-01-11 04:21:00,43.9,40.0,30.14,ESE,103,6.0,10.0,86,0.07,,OVC045,0.07,VWS V14.01,2013-01-11 09:21:00,
2013-01-11 04:22:00,43.9,40.0,30.14,East,79,7.0,10.0,86,0.07,,OVC045,0.07,VWS V14.01,2013-01-11 09:22:00,
2013-01-11 04:23:00,43.9,40.0,30.14,ESE,105,6.0,9.0,86,0.07,,-RA,0.07,VWS V14.01,2013-01-11 09:23:00,
2013-01-11 04:24:00,43.9,40.0,30.14,ENE,60,6.0,9.0,86,0.07,,OVC045,0.07,VWS V14.01,2013-01-11 09:24:00,
2013-01-11 04:25:00,43.9,40.0,30.14,ESE,104,4.0,9.0,86,0.07,,OVC045,0.07,VWS V14.01,2013-01-11 09:25:00,
2013-01-11 04:26:00,43.9,40.0,30.14,ENE,77,5.0,6.0,86,0.07,,OVC045,0.07,VWS V14.01,2013-01-11 09:26:00,
2013-01-11 04:27:00,44.0,40.1,30.14,East,101,4.0,10.0,86,0.07,,OVC045,0.07,VWS V14.01,2013-01-11 09:27:00,
2013-01-11 04:28:00,44.0,40.1,30.14,East,89,4.0,10.0,86,0.07,,-RA,0.07,VWS V14.01,2013-01-11 09:28:00,
2013-01-11 04:29:00,44.0,40.1,30.14,ESE,105,3.0,6.0,86,0.07,,OVC045,0.07,VWS V14.01,2013-01-11 09:29:00,
2013-01-11 04:30:00,44.0,40.1,30.14,ESE,114,3.0,5.0,86,0.07,,OVC045,0.07,VWS V14.01,2013-01-11 09:30:00,
2013-01-11 04:31:00,44.0,40.1,30.14,ESE,121,5.0,7.0,86,0.07,,OVC045,0.07,VWS V14.01,2013-01-11 09:31:00,
2013-01-11 04:32:00,44.1,40.5,30.14,ESE,107,4.0,7.0,87,0.07,,OVC045,0.07,VWS V14.01,2013-01-11 09:32:00,
2013-01-11 04:33:00,44.1,40.5,30.14,ENE,72,2.0,7.0,87,0.07,,-RA,0.07,VWS V14.01,2013-01-11 09:33:00,
2013-01-11 04:34:00,44.1,40.5,30.14,ESE,111,4.0,8.0,87,0.07,,OVC045,0.07,VWS V14.01,2013-01-11 09:34:00,
2013-01-11 04:35:00,44.1,40.5,30.14,ENE,75,4.0,4.0,87,0.07,,OVC045,0.07,VWS V14.01,2013-01-11 09:35:00,
2013-01-11 04:36:00,44.1,40.5,30.14,East,80,4.0,5.0,87,0.07,,OVC045,0.07,VWS V14.01,2013-01-11 09:36:00,
2013-01-11 04:37:00,44.1,40.5,30.14,ESE,103,6.0,6.0,87,0.07,,OVC045,0.07,VWS V14.01,2013-01-11 09:37:00,
2013-01-11 04:38:00,44.1,40.5,30.14,ESE,108,5.0,6.0,87,0.07,,-RA,0.07,VWS V14.01,2013-01-11 09:38:00,
2013-01-11 04:39:00,44.2,40.6,30.13,ESE,115,5.0,9.0,87,0.07,,OVC045,0.07,VWS V14.01,2013-01-11 09:39:00,
2013-01-11 04:40:00,44.3,40.7,30.13,ESE,119,5.0,9.0,87,0.07,,OVC045,0.07,VWS V14.01,2013-01-11 09:40:00,
2013-01-11 04:41:00,44.3,40.7,30.13,East,83,5.0,7.0,87,0.07,,OVC045,0.07,VWS V14.01,2013-01-11 09:41:00,
2013-01-11 04:42:00,44.4,40.8,30.13,East,101,7.0,8.0,87,0.07,,OVC045,0.07,VWS V14.01,2013-01-11 09:42:00,
2013-01-11 04:43:00,44.4,40.8,30.13,ESE,111,7.0,8.0,87,0.07,,-RA,0.07,VWS V14.01,2013-01-11 09:43:00,
2013-01-11 04:44:00,44.5,40.9,30.13,East,91,5.0,10.0,87,0.07,,OVC045,0.07,VWS V14.01,2013-01-11 09:44:00,
2013-01-11 04:45:00,44.6,41.0,30.13,East,94,7.0,9.0,87,0.07,,OVC045,0.07,VWS V14.01,2013-01-11 09:45:00,
2013-01-11 04:46:00,44.6,41.0,30.13,East,86,5.0,8.0,87,0.07,,OVC045,0.07,VWS V14.01,2013-01-11 09:46:00,
2013-01-11 04:47:00,44.7,41.1,30.13,ESE,104,9.0,9.0,87,0.07,,OVC045,0.07,VWS V14.01,2013-01-11 09:47:00,
2013-01-11 04:48:00,44.7,41.1,30.13,ESE,121,7.0,9.0,87,0.07,,-RA,0.07,VWS V14.01,2013-01-11 09:48:00,
2013-01-11 04:49:00,44.8,41.2,30.12,ENE,65,7.0,9.0,87,0.07,,OVC045,0.07,VWS V14.01,2013-01-11 09:49:00,
2013-01-11 04:50:00,44.9,41.3,30.12,ESE,111,6.0,10.0,87,0.06,,OVC045,0.07,VWS V14.01,2013-01-11 09:50:00,
2013-01-11 04:51:00,44.9,41.3,30.12,ESE,113,10.0,10.0,87,0.06,,OVC045,0.07,VWS V14.01,2013-01-11 09:51:00,
2013-01-11 04:52:00,45.0,41.4,30.12,SE,130,7.0,10.0,87,0.06,,OVC045,0.07,VWS V14.01,2013-01-11 09:52:00,
2013-01-11 04:53:00,45.0,41.4,30.12,East,99,9.0,10.0,87,0.06,,-RA,0.07,VWS V14.01,2013-01-11 09:53:00,
2013-01-11 04:54:00,45.1,41.2,30.12,ESE,114,6.0,10.0,86,0.06,,OVC045,0.07,VWS V14.01,2013-01-11 09:54:00,
2013-01-11 04:55:00,45.2,41.3,30.12,East,89,6.0,10.0,86,0.06,,OVC045,0.07,VWS V14.01,2013-01-11 09:55:00,
2013-01-11 04:56:00,45.3,41.4,30.12,East,93,7.0,10.0,86,0.05,,OVC045,0.07,VWS V14.01,2013-01-11 09:56:00,
2013-01-11 04:57:00,45.3,41.4,30.12,East,100,8.0,8.0,86,0.05,,OVC045,0.07,VWS V14.01,2013-01-11 09:57:00,
2013-01-11 04:58:00,45.3,41.4,30.12,East,98,7.0,9.0,86,0.05,,-RA,0.07,VWS V14.01,2013-01-11 09:58:00,
2013-01-11 04:59:00,45.5,41.6,30.12,East,92,5.0,10.0,86,0.04,,OVC045,0.07,VWS V14.01,2013-01-11 09:59:00,
2013-01-11 05:00:00,45.5,41.6,30.12,East,87,6.0,10.0,86,0.04,,OVC045,0.07,VWS V14.01,2013-01-11 10:00:00,
2013-01-11 05:01:00,45.6,41.7,30.12,ESE,111,6.0,9.0,86,0.03,,OVC045,0.07,VWS V14.01,2013-01-11 10:01:00,
2013-01-11 05:02:00,45.7,41.8,30.12,East,89,9.0,9.0,86,0.02,,OVC045,0.07,VWS V14.01,2013-01-11 10:02:00,
2013-01-11 05:03:00,45.7,41.8,30.11,ESE,105,5.0,9.0,86,0.02,,OVC095,0.07,VWS V14.01,2013-01-11 10:03:00,
2013-01-11 05:04:00,45.7,41.8,30.11,East,79,5.0,8.0,86,0.02,,OVC045,0.07,VWS V14.01,2013-01-11 10:04:00,
2013-01-11 05:05:00,45.8,41.9,30.11,East,95,7.0,8.0,86,0.01,,OVC045,0.07,VWS V14.01,2013-01-11 10:05:00,
2013-01-11 05:06:00,45.8,41.9,30.11,ENE,60,7.0,8.0,86,0.01,,OVC045,0.07,VWS V14.01,2013-01-11 10:06:00,
2013-01-11 05:07:00,45.9,42.0,30.11,East,98,5.0,9.0,86,0.01,,OVC045,0.07,VWS V14.01,2013-01-11 10:07:00,
2013-01-11 05:08:00,45.9,42.0,30.11,SE,126,5.0,11.0,86,0.01,,OVC095,0.07,VWS V14.01,2013-01-11 10:08:00,
2013-01-11 05:09:00,45.9,42.0,30.11,ESE,106,6.0,10.0,86,0.01,,OVC045,0.07,VWS V14.01,2013-01-11 10:09:00,
2013-01-11 05:10:00,46.0,42.3,30.10,East,81,6.0,10.0,87,0.01,,OVC045,0.07,VWS V14.01,2013-01-11 10:10:00,
2013-01-11 05:11:00,46.0,42.3,30.10,NE,50,6.0,8.0,87,0.01,,OVC045,0.07,VWS V14.01,2013-01-11 10:11:00,
2013-01-11 05:12:00,46.1,42.5,30.10,ESE,111,5.0,7.0,87,0.01,,OVC045,0.07,VWS V14.01,2013-01-11 10:12:00,
2013-01-11 05:13:00,46.1,42.5,30.10,ESE,114,7.0,7.0,87,0.01,,OVC095,0.07,VWS V14.01,2013-01-11 10:13:00,
2013-01-11 05:14:00,46.2,42.5,30.10,ENE,71,6.0,8.0,87,0.01,,OVC045,0.07,VWS V14.01,2013-01-11 10:14:00,
2013-01-11 05:15:00,46.2,42.5,30.10,ESE,108,6.0,8.0,87,0.01,,OVC045,0.07,VWS V14.01,2013-01-11 10:15:00,
2013-01-11 05:16:00,46.3,42.7,30.10,SE,132,4.0,9.0,87,0.01,,OVC045,0.07,VWS V14.01,2013-01-11 10:16:00,
2013-01-11 05:18:00,46.3,42.7,30.11,ESE,120,4.0,7.0,87,0.01,,OVC095,0.07,VWS V14.01,2013-01-11 10:18:00,
2013-01-11 05:19:00,46.4,42.8,30.11,East,82,5.0,8.0,87,0.00,,OVC045,0.07,VWS V14.01,2013-01-11 10:19:00,
2013-01-11 05:20:00,46.4,42.8,30.11,East,101,1.0,8.0,87,0.00,,OVC045,0.07,VWS V14.01,2013-01-11 10:20:00,
2013-01-11 05:21:00,46.5,42.8,30.11,East,86,5.0,5.0,87,0.00,,OVC045,0.07,VWS V14.01,2013-01-11 10:21:00,
2013-01-11 05:22:00,46.5,42.8,30.11,East,86,5.0,6.0,87,0.00,,OVC045,0.07,VWS V14.01,2013-01-11 10:22:00,
2013-01-11 05:23:00,46.5,42.8,30.11,ESE,107,5.0,6.0,87,0.00,,OVC095,0.07,VWS V14.01,2013-01-11 10:23:00,
2013-01-11 05:24:00,46.6,42.9,30.11,ENE,72,5.0,7.0,87,0.00,,OVC045,0.07,VWS V14.01,2013-01-11 10:24:00,
2013-01-11 05:25:00,46.7,43.0,30.11,East,97,5.0,6.0,87,0.00,,OVC045,0.07,VWS V14.01,2013-01-11 10:25:00,
2013-01-11 05:26:00,46.7,43.0,30.11,NNE,32,5.0,7.0,87,0.00,,OVC045,0.07,VWS V14.01,2013-01-11 10:26:00,
2013-01-11 05:27:00,46.7,42.7,30.11,East,92,4.0,7.0,86,0.00,,OVC045,0.07,VWS V14.01,2013-01-11 10:27:00,
2013-01-11 05:28:00,46.7,42.7,30.11,ENE,65,4.0,7.0,86,0.00,,OVC095,0.07,VWS V14.01,2013-01-11 10:28:00,
2013-01-11 05:29:00,46.8,42.8,30.11,ENE,77,4.0,7.0,86,0.00,,OVC045,0.07,VWS V14.01,2013-01-11 10:29:00,
2013-01-11 05:30:00,46.8,42.8,30.10,ENE,75,5.0,6.0,86,0.00,,OVC045,0.07,VWS V14.01,2013-01-11 10:30:00,
2013-01-11 05:31:00,46.8,42.8,30.10,ESE,103,3.0,7.0,86,0.00,,OVC045,0.07,VWS V14.01,2013-01-11 10:31:00,
2013-01-11 05:32:00,46.8,43.1,30.10,ENE,63,4.0,6.0,87,0.00,,OVC045,0.07,VWS V14.01,2013-01-11 10:32:00,
2013-01-11 05:33:00,46.8,43.1,30.10,ENE,68,6.0,6.0,87,0.00,,OVC095,0.07,VWS V14.01,2013-01-11 10:33:00,
2013-01-11 05:34:00,46.9,43.2,30.10,East,98,4.0,9.0,87,0.00,,OVC045,0.07,VWS V14.01,2013-01-11 10:34:00,
2013-01-11 05:35:00,46.9,43.2,30.10,ENE,68,4.0,7.0,87,0.00,,OVC045,0.07,VWS V14.01,2013-01-11 10:35:00,
2013-01-11 05:36:00,46.9,43.2,30.10,East,88,5.0,5.0,87,0.00,,OVC045,0.07,VWS V14.01,2013-01-11 10:36:00,
2013-01-11 05:37:00,47.0,43.3,30.10,ENE,73,5.0,6.0,87,0.00,,OVC045,0.07,VWS V14.01,2013-01-11 10:37:00,
2013-01-11 05:38:00,47.0,43.3,30.09,ENE,70,5.0,6.0,87,0.00,,OVC095,0.07,VWS V14.01,2013-01-11 10:38:00,
2013-01-11 05:39:00,47.1,43.4,30.09,East,80,6.0,8.0,87,0.00,,OVC045,0.07,VWS V14.01,2013-01-11 10:39:00,
2013-01-11 05:40:00,47.1,43.1,30.09,East,101,3.0,8.0,86,0.00,,OVC045,0.07,VWS V14.01,2013-01-11 10:40:00,
2013-01-11 05:41:00,47.1,43.4,30.09,ENE,62,4.0,7.0,87,0.00,,OVC045,0.07,VWS V14.01,2013-01-11 10:41:00,
2013-01-11 05:42:00,47.2,43.5,30.09,ENE,76,5.0,7.0,87,0.00,,OVC045,0.07,VWS V14.01,2013-01-11 10:42:00,
2013-01-11 05:43:00,47.2,43.2,30.09,ESE,114,3.0,7.0,86,0.00,,OVC095,0.07,VWS V14.01,2013-01-11 10:43:00,
2013-01-11 05:44:00,47.3,43.3,30.09,ENE,76,5.0,6.0,86,0.00,,OVC045,0.07,VWS V14.01,2013-01-11 10:44:00,
2013-01-11 05:45:00,47.3,43.3,30.09,ESE,102,5.0,5.0,86,0.00,,OVC045,0.07,VWS V14.01,2013-01-11 10:45:00,
2013-01-11 05:46:00,47.4,43.4,30.09,East,95,5.0,6.0,86,0.00,,OVC045,0.07,VWS V14.01,2013-01-11 10:46:00,
2013-01-11 05:47:00,47.5,43.5,30.09,East,100,4.0,8.0,86,0.00,,OVC045,0.07,VWS V14.01,2013-01-11 10:47:00,
2013-01-11 05:48:00,47.5,43.5,30.09,East,94,3.0,8.0,86,0.00,,OVC095,0.07,VWS V14.01,2013-01-11 10:48:00,
2013-01-11 05:49:00,47.6,43.6,30.09,East,86,3.0,7.0,86,0.00,,OVC045,0.07,VWS V14.01,2013-01-11 10:49:00,
2013-01-11 05:50:00,47.6,43.6,30.09,ENE,76,3.0,5.0,86,0.00,,OVC045,0.07,VWS V14.01,2013-01-11 10:50:00,
2013-01-11 05:51:00,47.7,43.7,30.09,East,89,4.0,5.0,86,0.00,,OVC045,0.07,VWS V14.01,2013-01-11 10:51:00,
2013-01-11 05:52:00,47.7,43.7,30.10,East,101,3.0,5.0,86,0.00,,OVC045,0.07,VWS V14.01,2013-01-11 10:52:00,
2013-01-11 05:53:00,47.7,43.7,30.10,East,89,2.0,5.0,86,0.00,,OVC095,0.07,VWS V14.01,2013-01-11 10:53:00,
2013-01-11 05:54:00,47.8,43.5,30.09,ENE,75,5.0,5.0,85,0.00,,OVC045,0.07,VWS V14.01,2013-01-11 10:54:00,
2013-01-11 05:55:00,47.8,43.5,30.10,ESE,118,5.0,6.0,85,0.00,,OVC045,0.07,VWS V14.01,2013-01-11 10:55:00,
2013-01-11 05:56:00,47.8,43.5,30.10,East,94,4.0,5.0,85,0.00,,OVC045,0.07,VWS V14.01,2013-01-11 10:56:00,
2013-01-11 05:57:00,47.8,43.5,30.10,ESE,110,2.0,5.0,85,0.00,,OVC045,0.07,VWS V14.01,2013-01-11 10:57:00,
2013-01-11 05:58:00,47.8,43.5,30.10,SE,136,1.0,4.0,85,0.00,,OVC095,0.07,VWS V14.01,2013-01-11 10:58:00,
2013-01-11 05:59:00,47.8,43.5,30.09,ESE,111,3.0,4.0,85,0.00,,OVC045,0.07,VWS V14.01,2013-01-11 10:59:00,
2013-01-11 06:00:00,47.8,43.5,30.09,East,80,2.0,4.0,85,0.00,,OVC045,0.07,VWS V14.01,2013-01-11 11:00:00,
2013-01-11 06:01:00,47.8,43.5,30.09,ENE,76,5.0,5.0,85,0.00,,OVC045,0.07,VWS V14.01,2013-01-11 11:01:00,
2013-01-11 06:02:00,47.9,43.9,30.09,ESE,113,3.0,7.0,86,0.00,,OVC045,0.07,VWS V14.01,2013-01-11 11:02:00,
2013-01-11 06:03:00,48.0,44.0,30.08,ESE,119,4.0,7.0,86,0.00,,-RA,0.07,VWS V14.01,2013-01-11 11:03:00,
2013-01-11 06:04:00,48.6,44.9,30.08,ESE,117,8.0,10.0,87,0.00,,OVC045,0.07,VWS V14.01,2013-01-11 11:04:00,
2013-01-11 06:05:00,49.0,45.3,30.08,ESE,117,4.0,9.0,87,0.00,,OVC045,0.07,VWS V14.01,2013-01-11 11:05:00,
2013-01-11 06:06:00,49.5,45.8,30.08,SSE,156,4.0,9.0,87,0.00,,OVC045,0.07,VWS V14.01,2013-01-11 11:06:00,
2013-01-11 06:07:00,50.0,46.3,30.07,SSE,153,7.0,8.0,87,0.00,,OVC045,0.07,VWS V14.01,2013-01-11 11:07:00,
2013-01-11 06:08:00,50.0,46.0,30.08,SE,146,6.0,7.0,86,0.00,,-RA,0.07,VWS V14.01,2013-01-11 11:08:00,
2013-01-11 06:09:00,50.7,46.4,30.08,SE,141,4.0,8.0,85,0.00,,OVC045,0.07,VWS V14.01,2013-01-11 11:09:00,
2013-01-11 06:10:00,51.0,46.7,30.08,SSE,166,7.0,8.0,85,0.00,,OVC045,0.07,VWS V14.01,2013-01-11 11:10:00,
2013-01-11 06:11:00,51.2,46.8,30.08,ESE,115,9.0,13.0,85,0.00,,OVC045,0.07,VWS V14.01,2013-01-11 11:11:00,
2013-01-11 06:12:00,51.3,47.0,30.08,ESE,113,8.0,13.0,85,0.01,,OVC045,0.08,VWS V14.01,2013-01-11 11:12:00,
2013-01-11 06:13:00,51.4,47.0,30.07,SE,143,7.0,13.0,85,0.01,,-RA,0.08,VWS V14.01,2013-01-11 11:13:00,
2013-01-11 06:14:00,51.5,47.2,30.07,SSE,159,8.0,9.0,85,0.01,,OVC045,0.08,VWS V14.01,2013-01-11 11:14:00,
2013-01-11 06:15:00,51.6,47.6,30.07,SE,131,9.0,16.0,86,0.01,,OVC045,0.08,VWS V14.01,2013-01-11 11:15:00,
2013-01-11 06:16:00,51.7,47.7,30.07,SE,135,12.0,16.0,86,0.01,,OVC045,0.08,VWS V14.01,2013-01-11 11:16:00,
2013-01-11 06:17:00,51.7,47.7,30.06,SE,141,7.0,12.0,86,0.01,,OVC045,0.08,VWS V14.01,2013-01-11 11:17:00,
2013-01-11 06:18:00,51.8,47.8,30.06,East,83,10.0,12.0,86,0.01,,-RA,0.08,VWS V14.01,2013-01-11 11:18:00,
2013-01-11 06:19:00,51.9,47.8,30.06,SE,131,8.0,12.0,86,0.01,,OVC045,0.08,VWS V14.01,2013-01-11 11:19:00,
2013-01-11 06:20:00,52.0,48.0,30.06,SE,132,8.0,13.0,86,0.01,,OVC045,0.08,VWS V14.01,2013-01-11 11:20:00,
2013-01-11 06:21:00,52.0,48.0,30.06,ESE,105,8.0,11.0,86,0.01,,OVC045,0.08,VWS V14.01,2013-01-11 11:21:00,
2013-01-11 06:22:00,52.1,48.0,30.06,SSE,153,5.0,12.0,86,0.01,,OVC045,0.08,VWS V14.01,2013-01-11 11:22:00,
2013-01-11 06:23:00,52.1,48.0,30.06,ESE,121,5.0,12.0,86,0.01,,-RA,0.08,VWS V14.01,2013-01-11 11:23:00,
2013-01-11 06:24:00,52.1,48.0,30.06,SSE,159,6.0,11.0,86,0.01,,OVC045,0.08,VWS V14.01,2013-01-11 11:24:00,
2013-01-11 06:25:00,52.2,48.2,30.06,South,172,5.0,9.0,86,0.01,,OVC045,0.08,VWS V14.01,2013-01-11 11:25:00,
2013-01-11 06:26:00,52.3,48.2,30.07,SE,138,7.0,9.0,86,0.02,,OVC045,0.09,VWS V14.01,2013-01-11 11:26:00,
2013-01-11 06:27:00,52.3,48.2,30.07,SSE,155,10.0,13.0,86,0.02,,OVC045,0.09,VWS V14.01,2013-01-11 11:27:00,
2013-01-11 06:28:00,52.4,48.3,30.07,SE,138,10.0,13.0,86,0.02,,-RA,0.09,VWS V14.01,2013-01-11 11:28:00,
2013-01-11 06:29:00,52.5,48.4,30.07,ESE,109,6.0,14.0,86,0.02,,OVC045,0.09,VWS V14.01,2013-01-11 11:29:00,
2013-01-11 06:30:00,52.5,48.4,30.07,SSE,153,8.0,12.0,86,0.02,,OVC045,0.09,VWS V14.01,2013-01-11 11:30:00,
2013-01-11 06:31:00,52.6,48.5,30.07,SSW,200,6.0,9.0,86,0.02,,OVC045,0.09,VWS V14.01,2013-01-11 11:31:00,
2013-01-11 06:32:00,52.6,48.8,30.07,SSW,197,7.0,13.0,87,0.02,,OVC045,0.09,VWS V14.01,2013-01-11 11:32:00,
2013-01-11 06:33:00,52.6,48.8,30.07,SSE,163,10.0,13.0,87,0.02,,-RA,0.09,VWS V14.01,2013-01-11 11:33:00,
2013-01-11 06:34:00,52.7,49.0,30.07,South,183,7.0,20.0,87,0.02,,OVC045,0.09,VWS V14.01,2013-01-11 11:34:00,
2013-01-11 06:35:00,52.8,49.0,30.07,SE,129,10.0,12.0,87,0.03,,OVC045,0.10,VWS V14.01,2013-01-11 11:35:00,
2013-01-11 06:36:00,52.8,49.0,30.07,SE,136,7.0,12.0,87,0.03,,OVC045,0.10,VWS V14.01,2013-01-11 11:36:00,
2013-01-11 06:37:00,52.7,49.0,30.07,SSE,160,7.0,9.0,87,0.03,,OVC045,0.10,VWS V14.01,2013-01-11 11:37:00,
2013-01-11 06:38:00,52.7,49.0,30.06,SE,141,6.0,9.0,87,0.03,,-RA,0.10,VWS V14.01,2013-01-11 11:38:00,
2013-01-11 06:39:00,52.7,49.0,30.06,SSE,159,7.0,13.0,87,0.03,,OVC045,0.10,VWS V14.01,2013-01-11 11:39:00,
2013-01-11 06:40:00,52.6,48.8,30.06,SE,142,6.0,13.0,87,0.03,,OVC045,0.10,VWS V14.01,2013-01-11 11:40:00,
2013-01-11 06:41:00,52.6,49.2,30.06,SE,125,7.0,9.0,88,0.03,,OVC045,0.10,VWS V14.01,2013-01-11 11:41:00,
2013-01-11 06:42:00,52.5,49.1,30.06,SSE,152,7.0,10.0,88,0.03,,OVC045,0.10,VWS V14.01,2013-01-11 11:42:00,
2013-01-11 06:43:00,52.5,49.0,30.06,SW,222,6.0,10.0,88,0.03,,-RA,0.10,VWS V14.01,2013-01-11 11:43:00,
2013-01-11 06:44:00,52.5,49.1,30.05,SE,135,8.0,11.0,88,0.03,,OVC045,0.10,VWS V14.01,2013-01-11 11:44:00,
2013-01-11 06:45:00,52.5,49.1,30.05,SE,134,11.0,12.0,88,0.03,,OVC045,0.10,VWS V14.01,2013-01-11 11:45:00,
2013-01-11 06:46:00,52.6,49.2,30.05,SSE,150,5.0,12.0,88,0.03,,OVC045,0.10,VWS V14.01,2013-01-11 11:46:00,
2013-01-11 06:47:00,52.6,49.2,30.05,ESE,119,9.0,11.0,88,0.03,,OVC045,0.10,VWS V14.01,2013-01-11 11:47:00,
2013-01-11 06:48:00,52.6,49.2,30.05,SSE,165,7.0,11.0,88,0.03,,-RA,0.10,VWS V14.01,2013-01-11 11:48:00,
2013-01-11 06:49:00,52.6,49.2,30.05,ESE,120,7.0,14.0,88,0.03,,OVC045,0.10,VWS V14.01,2013-01-11 11:49:00,
2013-01-11 06:50:00,52.6,49.2,30.05,ESE,120,5.0,11.0,88,0.03,,OVC045,0.10,VWS V14.01,2013-01-11 11:50:00,
2013-01-11 06:51:00,52.7,49.2,30.05,ESE,122,9.0,11.0,88,0.03,,OVC045,0.10,VWS V14.01,2013-01-11 11:51:00,
2013-01-11 06:52:00,52.7,49.2,30.05,SE,127,8.0,12.0,88,0.03,,OVC045,0.10,VWS V14.01,2013-01-11 11:52:00,
2013-01-11 06:53:00,52.8,49.3,30.04,ESE,107,8.0,12.0,88,0.03,,-RA,0.10,VWS V14.01,2013-01-11 11:53:00,
2013-01-11 06:54:00,52.8,49.3,30.04,East,96,8.0,16.0,88,0.03,,OVC045,0.10,VWS V14.01,2013-01-11 11:54:00,
2013-01-11 06:55:00,52.9,49.5,30.04,SSE,151,10.0,13.0,88,0.03,,OVC045,0.10,VWS V14.01,2013-01-11 11:55:00,
2013-01-11 06:56:00,52.9,49.5,30.04,East,82,8.0,13.0,88,0.03,,OVC045,0.10,VWS V14.01,2013-01-11 11:56:00,
2013-01-11 06:57:00,53.0,49.5,30.04,SE,131,10.0,13.0,88,0.03,,OVC045,0.10,VWS V14.01,2013-01-11 11:57:00,
2013-01-11 06:58:00,53.0,49.5,30.04,SSE,150,11.0,13.0,88,0.03,,-RA,0.10,VWS V14.01,2013-01-11 11:58:00,
2013-01-11 06:59:00,53.1,49.7,30.04,ESE,121,9.0,14.0,88,0.03,,OVC045,0.10,VWS V14.01,2013-01-11 11:59:00,
2013-01-11 07:00:00,53.2,49.7,30.04,South,191,8.0,20.0,88,0.03,,OVC045,0.10,VWS V14.01,2013-01-11 12:00:00,
2013-01-11 07:01:00,53.2,49.4,30.04,ENE,69,7.0,20.0,87,0.03,,OVC045,0.10,VWS V14.01,2013-01-11 12:01:00,
2013-01-11 07:02:00,53.3,49.5,30.04,ESE,110,7.0,13.0,87,0.03,,OVC045,0.10,VWS V14.01,2013-01-11 12:02:00,
2013-01-11 07:03:00,53.3,49.5,30.04,SE,139,10.0,13.0,87,0.03,,-RA,0.10,VWS V14.01,2013-01-11 12:03:00,
2013-01-11 07:04:00,53.2,49.7,30.03,SSE,153,9.0,11.0,88,0.03,,OVC045,0.10,VWS V14.01,2013-01-11 12:04:00,
2013-01-11 07:05:00,53.3,49.8,30.04,SE,143,8.0,14.0,88,0.03,,OVC045,0.10,VWS V14.01,2013-01-11 12:05:00,
2013-01-11 07:06:00,53.3,49.8,30.04,SE,127,9.0,13.0,88,0.03,,OVC045,0.10,VWS V14.01,2013-01-11 12:06:00,
2013-01-11 07:07:00,53.3,49.5,30.04,SE,129,11.0,11.0,87,0.03,,OVC045,0.10,VWS V14.01,2013-01-11 12:07:00,
2013-01-11 07:08:00,53.3,49.5,30.04,SE,126,12.0,12.0,87,0.03,,-RA,0.10,VWS V14.01,2013-01-11 12:08:00,
2013-01-11 07:09:00,53.3,49.5,30.04,East,97,6.0,10.0,87,0.03,,OVC045,0.10,VWS V14.01,2013-01-11 12:09:00,
2013-01-11 07:10:00,53.3,49.5,30.04,SE,133,8.0,11.0,87,0.03,,OVC045,0.10,VWS V14.01,2013-01-11 12:10:00,
2013-01-11 07:11:00,53.3,49.5,30.04,ESE,111,7.0,13.0,87,0.03,,OVC045,0.10,VWS V14.01,2013-01-11 12:11:00,
2013-01-11 07:12:00,53.4,49.6,30.04,ESE,107,7.0,11.0,87,0.03,,OVC045,0.10,VWS V14.01,2013-01-11 12:12:00,
2013-01-11 07:13:00,53.3,49.5,30.04,ESE,115,10.0,11.0,87,0.02,,-RA,0.10,VWS V14.01,2013-01-11 12:13:00,
2013-01-11 07:14:00,53.3,49.5,30.04,ESE,107,5.0,12.0,87,0.02,,OVC045,0.10,VWS V14.01,2013-01-11 12:14:00,
2013-01-11 07:15:00,53.3,49.5,30.04,SE,131,6.0,10.0,87,0.02,,OVC045,0.10,VWS V14.01,2013-01-11 12:15:00,
2013-01-11 07:16:00,53.3,49.5,30.04,SE,129,10.0,13.0,87,0.02,,OVC045,0.10,VWS V14.01,2013-01-11 12:16:00,
2013-01-11 07:17:00,53.4,49.9,30.04,SSE,148,4.0,13.0,88,0.02,,OVC045,0.10,VWS V14.01,2013-01-11 12:17:00,
2013-01-11 07:18:00,53.4,49.9,30.04,SSE,158,6.0,13.0,88,0.02,,-RA,0.10,VWS V14.01,2013-01-11 12:18:00,
2013-01-11 07:19:00,53.4,49.9,30.03,ESE,119,7.0,13.0,88,0.02,,OVC045,0.10,VWS V14.01,2013-01-11 12:19:00,
2013-01-11 07:20:00,53.4,49.9,30.04,South,181,5.0,13.0,88,0.02,,OVC045,0.10,VWS V14.01,2013-01-11 12:20:00,
2013-01-11 07:21:00,53.5,50.0,30.04,SE,127,7.0,15.0,88,0.02,,OVC045,0.10,VWS V14.01,2013-01-11 12:21:00,
2013-01-11 07:22:00,53.5,49.7,30.04,ESE,122,7.0,13.0,87,0.02,,OVC045,0.10,VWS V14.01,2013-01-11 12:22:00,
2013-01-11 07:23:00,53.5,49.7,30.04,SSE,152,5.0,13.0,87,0.02,,-RA,0.10,VWS V14.01,2013-01-11 12:23:00,
2013-01-11 07:24:00,53.6,49.8,30.03,ESE,120,12.0,15.0,87,0.02,,OVC045,0.10,VWS V14.01,2013-01-11 12:24:00,
2013-01-11 07:25:00,53.6,49.8,30.04,ESE,119,11.0,15.0,87,0.02,,OVC045,0.10,VWS V14.01,2013-01-11 12:25:00,
2013-01-11 07:26:00,53.6,49.8,30.03,ESE,120,10.0,14.0,87,0.02,,OVC045,0.10,VWS V14.01,2013-01-11 12:26:00,
2013-01-11 07:27:00,53.7,49.9,30.03,East,101,5.0,11.0,87,0.01,,OVC045,0.10,VWS V14.01,2013-01-11 12:27:00,
2013-01-11 07:28:00,53.7,49.9,30.03,SSE,158,5.0,11.0,87,0.01,,-RA,0.10,VWS V14.01,2013-01-11 12:28:00,
2013-01-11 07:29:00,53.7,49.9,30.03,SE,136,8.0,10.0,87,0.01,,OVC045,0.10,VWS V14.01,2013-01-11 12:29:00,
2013-01-11 07:30:00,53.7,49.9,30.03,East,83,8.0,12.0,87,0.01,,OVC045,0.10,VWS V14.01,2013-01-11 12:30:00,
2013-01-11 07:31:00,53.7,49.9,30.03,South,170,5.0,13.0,87,0.01,,OVC045,0.10,VWS V14.01,2013-01-11 12:31:00,
2013-01-11 07:32:00,53.8,50.0,30.03,East,98,6.0,9.0,87,0.01,,OVC045,0.10,VWS V14.01,2013-01-11 12:32:00,
2013-01-11 07:33:00,53.8,50.0,30.03,ESE,120,4.0,9.0,87,0.01,,-RA,0.10,VWS V14.01,2013-01-11 12:33:00,
2013-01-11 07:34:00,53.8,50.0,30.03,ESE,121,3.0,19.0,87,0.01,,OVC045,0.10,VWS V14.01,2013-01-11 12:34:00,
2013-01-11 07:35:00,53.9,50.1,30.03,South,187,6.0,19.0,87,0.01,,OVC045,0.10,VWS V14.01,2013-01-11 12:35:00,
2013-01-11 07:36:00,53.9,50.1,30.03,ESE,119,12.0,16.0,87,0.00,,OVC045,0.10,VWS V14.01,2013-01-11 12:36:00,
2013-01-11 07:37:00,54.0,50.2,30.03,SSE,149,4.0,16.0,87,0.00,,OVC045,0.10,VWS V14.01,2013-01-11 12:37:00,
2013-01-11 07:38:00,54.0,50.2,30.03,SSE,149,6.0,16.0,87,0.00,,-RA,0.10,VWS V14.01,2013-01-11 12:38:00,
2013-01-11 07:39:00,54.0,50.2,30.02,SE,125,6.0,13.0,87,0.00,,OVC045,0.10,VWS V14.01,2013-01-11 12:39:00,
2013-01-11 07:40:00,54.1,50.3,30.03,SSE,153,6.0,11.0,87,0.00,,OVC045,0.10,VWS V14.01,2013-01-11 12:40:00,
2013-01-11 07:41:00,54.1,50.3,30.03,SE,142,12.0,12.0,87,0.00,,OVC045,0.10,VWS V14.01,2013-01-11 12:41:00,
2013-01-11 07:42:00,54.2,50.1,30.02,SSE,156,7.0,12.0,86,0.00,,OVC045,0.10,VWS V14.01,2013-01-11 12:42:00,
2013-01-11 07:43:00,54.2,50.1,30.02,SSE,155,7.0,12.0,86,0.00,,-RA,0.10,VWS V14.01,2013-01-11 12:43:00,
2013-01-11 07:44:00,54.3,50.2,30.02,SE,136,3.0,8.0,86,0.00,,OVC045,0.10,VWS V14.01,2013-01-11 12:44:00,
2013-01-11 07:45:00,54.4,50.3,30.02,SSE,148,9.0,12.0,86,0.00,,OVC045,0.10,VWS V14.01,2013-01-11 12:45:00,
2013-01-11 07:46:00,54.5,50.4,30.02,East,98,13.0,13.0,86,0.00,,OVC045,0.10,VWS V14.01,2013-01-11 12:46:00,
2013-01-11 07:47:00,54.6,50.5,30.02,SE,127,8.0,13.0,86,0.00,,OVC045,0.10,VWS V14.01,2013-01-11 12:47:00,
2013-01-11 07:48:00,54.6,50.5,30.02,SSE,154,10.0,14.0,86,0.00,,-RA,0.10,VWS V14.01,2013-01-11 12:48:00,
2013-01-11 07:49:00,54.8,50.4,30.02,ESE,115,10.0,11.0,85,0.00,,OVC045,0.10,VWS V14.01,2013-01-11 12:49:00,
2013-01-11 07:50:00,54.9,50.5,30.02,East,84,14.0,14.0,85,0.01,,OVC045,0.11,VWS V14.01,2013-01-11 12:50:00,
2013-01-11 07:51:00,54.9,50.5,30.02,SSE,149,6.0,15.0,85,0.01,,OVC045,0.11,VWS V14.01,2013-01-11 12:51:00,
2013-01-11 07:52:00,55.0,50.6,30.02,SE,136,8.0,13.0,85,0.01,,OVC045,0.11,VWS V14.01,2013-01-11 12:52:00,
2013-01-11 07:53:00,55.0,50.6,30.02,SSE,150,10.0,11.0,85,0.01,,-RA,0.11,VWS V14.01,2013-01-11 12:53:00,
2013-01-11 07:54:00,55.0,50.6,30.02,SE,136,5.0,14.0,85,0.01,,OVC045,0.11,VWS V14.01,2013-01-11 12:54:00,
2013-01-11 07:55:00,55.0,50.6,30.02,ESE,114,7.0,14.0,85,0.01,,OVC045,0.11,VWS V14.01,2013-01-11 12:55:00,
2013-01-11 07:56:00,55.0,50.6,30.01,South,177,8.0,11.0,85,0.01,,OVC045,0.11,VWS V14.01,2013-01-11 12:56:00,
2013-01-11 07:57:00,54.9,50.5,30.01,ESE,113,14.0,14.0,85,0.01,,OVC045,0.11,VWS V14.01,2013-01-11 12:57:00,
2013-01-11 07:58:00,54.9,50.5,30.01,ESE,111,10.0,14.0,85,0.01,,-RA,0.11,VWS V14.01,2013-01-11 12:58:00,
2013-01-11 07:59:00,55.0,50.6,30.01,East,97,10.0,12.0,85,0.01,,OVC045,0.11,VWS V14.01,2013-01-11 12:59:00,
2013-01-11 08:00:00,55.0,50.6,30.01,SSE,150,6.0,10.0,85,0.01,,OVC045,0.11,VWS V14.01,2013-01-11 13:00:00,
2013-01-11 08:01:00,55.0,50.6,30.02,SSE,150,8.0,16.0,85,0.01,,OVC045,0.11,VWS V14.01,2013-01-11 13:01:00,
2013-01-11 08:02:00,54.9,50.5,30.01,SE,146,5.0,16.0,85,0.01,,OVC045,0.11,VWS V14.01,2013-01-11 13:02:00,
2013-01-11 08:03:00,55.0,50.6,30.01,ESE,111,14.0,14.0,85,0.01,, +RA,0.11,VWS V14.01,2013-01-11 13:03:00,
2013-01-11 08:04:00,55.1,50.7,30.01,SE,124,11.0,18.0,85,0.01,,OVC045,0.11,VWS V14.01,2013-01-11 13:04:00,
2013-01-11 08:05:00,55.1,50.4,30.01,SE,138,6.0,18.0,84,0.01,,OVC045,0.11,VWS V14.01,2013-01-11 13:05:00,
2013-01-11 08:06:00,55.2,50.5,30.01,ESE,122,14.0,14.0,84,0.01,,OVC045,0.11,VWS V14.01,2013-01-11 13:06:00,
2013-01-11 08:07:00,55.3,50.6,30.01,SSW,211,7.0,18.0,84,0.01,,OVC045,0.11,VWS V14.01,2013-01-11 13:07:00,
2013-01-11 08:08:00,55.3,50.6,30.01,South,187,12.0,18.0,84,0.01,, +RA,0.11,VWS V14.01,2013-01-11 13:08:00,
2013-01-11 08:09:00,55.4,50.7,30.01,South,176,5.0,12.0,84,0.01,,OVC045,0.11,VWS V14.01,2013-01-11 13:09:00,
2013-01-11 08:10:00,55.4,50.7,30.01,SSE,154,8.0,12.0,84,0.01,,OVC045,0.11,VWS V14.01,2013-01-11 13:10:00,
2013-01-11 08:11:00,55.4,50.3,30.01,ESE,105,14.0,20.0,83,0.01,,OVC045,0.11,VWS V14.01,2013-01-11 13:11:00,
2013-01-11 08:12:00,55.5,50.4,30.01,SE,136,7.0,18.0,83,0.01,,OVC045,0.11,VWS V14.01,2013-01-11 13:12:00,
2013-01-11 08:13:00,55.5,50.4,30.01,ESE,114,7.0,18.0,83,0.01,, +RA,0.11,VWS V14.01,2013-01-11 13:13:00,
2013-01-11 08:14:00,55.5,50.8,30.01,South,191,13.0,13.0,84,0.01,,OVC045,0.11,VWS V14.01,2013-01-11 13:14:00,
2013-01-11 08:15:00,55.5,50.8,30.01,SSE,152,15.0,15.0,84,0.01,,OVC045,0.11,VWS V14.01,2013-01-11 13:15:00,
2013-01-11 08:16:00,55.5,50.4,30.01,SSW,207,11.0,16.0,83,0.01,,OVC045,0.11,VWS V14.01,2013-01-11 13:16:00,
2013-01-11 08:17:00,55.5,50.4,30.01,ESE,109,7.0,16.0,83,0.01,,OVC045,0.11,VWS V14.01,2013-01-11 13:17:00,
2013-01-11 08:18:00,55.5,50.4,30.02,SSE,156,7.0,16.0,83,0.01,, +RA,0.11,VWS V14.01,2013-01-11 13:18:00,
2013-01-11 08:19:00,55.5,50.8,30.02,SSW,210,6.0,11.0,84,0.02,,OVC045,0.12,VWS V14.01,2013-01-11 13:19:00,
2013-01-11 08:20:00,55.5,50.8,30.02,SSW,192,4.0,10.0,84,0.02,,OVC045,0.12,VWS V14.01,2013-01-11 13:20:00,
2013-01-11 08:21:00,55.4,50.7,30.02,SSE,167,4.0,9.0,84,0.02,,OVC045,0.12,VWS V14.01,2013-01-11 13:21:00,
2013-01-11 08:22:00,55.3,50.6,30.02,SW,233,9.0,16.0,84,0.02,,OVC045,0.12,VWS V14.01,2013-01-11 13:22:00,
2013-01-11 08:23:00,55.3,50.6,30.02,SSE,163,9.0,16.0,84,0.02,, +RA,0.12,VWS V14.01,2013-01-11 13:23:00,
2013-01-11 08:24:00,55.3,50.6,30.02,SSW,203,8.0,15.0,84,0.03,,OVC045,0.13,VWS V14.01,2013-01-11 13:24:00,
2013-01-11 08:25:00,55.2,50.5,30.02,SSW,194,6.0,13.0,84,0.03,,OVC045,0.13,VWS V14.01,2013-01-11 13:25:00,
2013-01-11 08:26:00,55.2,50.5,30.02,South,181,7.0,9.0,84,0.03,,OVC045,0.13,VWS V14.01,2013-01-11 13:26:00,
2013-01-11 08:27:00,55.1,50.7,30.02,South,176,10.0,10.0,85,0.03,,OVC045,0.13,VWS V14.01,2013-01-11 13:27:00,
2013-01-11 08:28:00,55.1,50.7,30.02,South,170,6.0,10.0,85,0.03,, +RA,0.13,VWS V14.01,2013-01-11 13:28:00,
2013-01-11 08:29:00,55.0,50.6,30.02,SW,219,12.0,12.0,85,0.04,,OVC045,0.14,VWS V14.01,2013-01-11 13:29:00,
2013-01-11 08:30:00,54.9,50.5,30.02,SSE,148,9.0,13.0,85,0.04,,OVC045,0.14,VWS V14.01,2013-01-11 13:30:00,
2013-01-11 08:31:00,54.9,50.5,30.02,SSE,152,7.0,12.0,85,0.04,,OVC045,0.14,VWS V14.01,2013-01-11 13:31:00,
2013-01-11 08:32:00,54.8,50.7,30.02,South,174,9.0,12.0,86,0.05,,OVC045,0.15,VWS V14.01,2013-01-11 13:32:00,
2013-01-11 08:33:00,54.8,50.7,30.03,SSE,149,11.0,12.0,86,0.05,, +RA,0.15,VWS V14.01,2013-01-11 13:33:00,
2013-01-11 08:34:00,54.7,50.6,30.02,SSW,197,11.0,16.0,86,0.05,,OVC045,0.15,VWS V14.01,2013-01-11 13:34:00,
2013-01-11 08:35:00,54.6,50.5,30.02,SE,138,10.0,16.0,86,0.06,,OVC045,0.16,VWS V14.01,2013-01-11 13:35:00,
2013-01-11 08:36:00,54.5,50.4,30.02,SE,143,7.0,17.0,86,0.06,,OVC045,0.16,VWS V14.01,2013-01-11 13:36:00,
2013-01-11 08:37:00,54.5,50.7,30.02,South,188,7.0,17.0,87,0.06,,OVC045,0.16,VWS V14.01,2013-01-11 13:37:00,
2013-01-11 08:38:00,54.5,50.7,30.02,SE,145,8.0,13.0,87,0.07,, +RA,0.17,VWS V14.01,2013-01-11 13:38:00,
2013-01-11 08:39:00,54.3,50.5,30.02,SSE,149,10.0,14.0,87,0.07,,OVC045,0.17,VWS V14.01,2013-01-11 13:39:00,
2013-01-11 08:40:00,54.3,50.5,30.02,South,174,11.0,16.0,87,0.08,,OVC045,0.18,VWS V14.01,2013-01-11 13:40:00,
2013-01-11 08:41:00,54.2,50.4,30.02,South,177,9.0,16.0,87,0.08,,OVC045,0.18,VWS V14.01,2013-01-11 13:41:00,
2013-01-11 08:42:00,54.2,50.7,30.02,SE,136,7.0,13.0,88,0.08,,OVC045,0.18,VWS V14.01,2013-01-11 13:42:00,
2013-01-11 08:43:00,54.1,50.6,30.01,SSE,161,7.0,13.0,88,0.08,, +RA,0.18,VWS V14.01,2013-01-11 13:43:00,
2013-01-11 08:44:00,54.1,50.6,30.01,SSE,160,9.0,12.0,88,0.08,,OVC045,0.18,VWS V14.01,2013-01-11 13:44:00,
2013-01-11 08:45:00,54.0,50.5,30.01,SE,145,9.0,12.0,88,0.09,,OVC045,0.19,VWS V14.01,2013-01-11 13:45:00,
2013-01-11 08:46:00,54.0,50.5,30.01,SE,128,6.0,9.0,88,0.10,,OVC045,0.20,VWS V14.01,2013-01-11 13:46:00,
2013-01-11 08:47:00,53.9,50.4,30.01,SSW,201,7.0,9.0,88,0.10,,OVC045,0.20,VWS V14.01,2013-01-11 13:47:00,
2013-01-11 08:48:00,53.9,50.4,30.01,ESE,122,9.0,9.0,88,0.10,, +RA,0.20,VWS V14.01,2013-01-11 13:48:00,
2013-01-11 08:49:00,53.9,50.4,30.01,SSE,150,5.0,8.0,88,0.10,,OVC045,0.20,VWS V14.01,2013-01-11 13:49:00,
2013-01-11 08:50:00,53.9,50.7,30.01,SE,136,5.0,10.0,89,0.10,,OVC045,0.20,VWS V14.01,2013-01-11 13:50:00,
2013-01-11 08:51:00,53.8,50.6,30.00,South,174,11.0,12.0,89,0.09,,OVC045,0.20,VWS V14.01,2013-01-11 13:51:00,
2013-01-11 08:52:00,53.8,50.6,30.00,South,191,5.0,12.0,89,0.09,,OVC045,0.20,VWS V14.01,2013-01-11 13:52:00,
2013-01-11 08:53:00,53.8,50.6,30.00,SSE,165,7.0,12.0,89,0.09,, +RA,0.20,VWS V14.01,2013-01-11 13:53:00,
2013-01-11 08:54:00,53.9,50.7,30.00,SSE,150,8.0,18.0,89,0.09,,OVC045,0.20,VWS V14.01,2013-01-11 13:54:00,
2013-01-11 08:55:00,53.9,50.7,30.00,SE,135,7.0,18.0,89,0.09,,OVC045,0.20,VWS V14.01,2013-01-11 13:55:00,
2013-01-11 08:56:00,53.9,50.7,30.00,SSE,160,9.0,16.0,89,0.09,,OVC045,0.20,VWS V14.01,2013-01-11 13:56:00,
2013-01-11 08:57:00,53.9,50.7,30.00,SSE,156,11.0,16.0,89,0.09,,OVC045,0.20,VWS V14.01,2013-01-11 13:57:00,
2013-01-11 08:58:00,53.9,50.7,30.00,SSE,167,14.0,16.0,89,0.09,, +RA,0.20,VWS V14.01,2013-01-11 13:58:00,
2013-01-11 08:59:00,54.0,50.8,30.01,SE,142,3.0,13.0,89,0.10,,OVC045,0.21,VWS V14.01,2013-01-11 13:59:00,
2013-01-11 09:00:00,54.0,50.8,30.01,SSW,195,6.0,9.0,89,0.10,,OVC045,0.21,VWS V14.01,2013-01-11 14:00:00,
2013-01-11 09:01:00,54.0,50.8,30.01,ESE,122,6.0,8.0,89,0.11,,OVC045,0.22,VWS V14.01,2013-01-11 14:01:00,
2013-01-11 09:02:00,54.0,50.8,30.01,SE,144,6.0,9.0,89,0.11,,OVC045,0.22,VWS V14.01,2013-01-11 14:02:00,
2013-01-11 09:03:00,54.0,50.8,30.01,South,178,5.0,9.0,89,0.11,,-RA,0.22,VWS V14.01,2013-01-11 14:03:00,
2013-01-11 09:04:00,54.0,50.8,30.01,WSW,243,13.0,13.0,89,0.13,,OVC045,0.24,VWS V14.01,2013-01-11 14:04:00,
2013-01-11 09:05:00,54.0,50.8,30.00,South,174,5.0,13.0,89,0.13,,OVC045,0.24,VWS V14.01,2013-01-11 14:05:00,
2013-01-11 09:06:00,54.0,50.8,30.01,SSW,193,5.0,10.0,89,0.14,,OVC045,0.25,VWS V14.01,2013-01-11 14:06:00,
2013-01-11 09:07:00,54.0,50.8,30.01,SSE,158,7.0,12.0,89,0.14,,OVC045,0.25,VWS V14.01,2013-01-11 14:07:00,
2013-01-11 09:08:00,54.0,50.8,30.01,SW,226,11.0,12.0,89,0.14,,-RA,0.25,VWS V14.01,2013-01-11 14:08:00,
2013-01-11 09:09:00,54.0,50.8,30.01,SSW,204,6.0,14.0,89,0.14,,OVC045,0.25,VWS V14.01,2013-01-11 14:09:00,
2013-01-11 09:10:00,53.9,50.7,30.01,South,177,10.0,14.0,89,0.14,,OVC045,0.25,VWS V14.01,2013-01-11 14:10:00,
2013-01-11 09:11:00,54.0,50.8,30.01,SSW,201,12.0,14.0,89,0.14,,OVC045,0.25,VWS V14.01,2013-01-11 14:11:00,
2013-01-11 09:12:00,54.0,50.8,30.01,SSW,201,8.0,12.0,89,0.14,,OVC045,0.25,VWS V14.01,2013-01-11 14:12:00,
2013-01-11 09:13:00,54.0,50.8,30.01,South,177,14.0,14.0,89,0.14,,-RA,0.25,VWS V14.01,2013-01-11 14:13:00,
2013-01-11 09:14:00,54.1,50.9,30.01,SW,217,14.0,15.0,89,0.14,,OVC045,0.25,VWS V14.01,2013-01-11 14:14:00,
2013-01-11 09:15:00,54.1,50.9,30.01,South,179,7.0,15.0,89,0.14,,OVC045,0.25,VWS V14.01,2013-01-11 14:15:00,
2013-01-11 09:16:00,54.1,50.9,30.01,SSW,198,7.0,11.0,89,0.14,,OVC045,0.25,VWS V14.01,2013-01-11 14:16:00,
2013-01-11 09:17:00,54.1,50.9,30.01,SSE,156,6.0,15.0,89,0.14,,OVC045,0.25,VWS V14.01,2013-01-11 14:17:00,
2013-01-11 09:18:00,54.1,50.9,30.01,South,172,8.0,15.0,89,0.14,,RA,0.25,VWS V14.01,2013-01-11 14:18:00,
2013-01-11 09:19:00,54.1,50.9,30.02,SSW,199,10.0,16.0,89,0.14,,OVC045,0.25,VWS V14.01,2013-01-11 14:19:00,
2013-01-11 09:20:00,54.1,50.9,30.02,SSW,207,5.0,16.0,89,0.13,,OVC045,0.25,VWS V14.01,2013-01-11 14:20:00,
2013-01-11 09:21:00,54.1,50.9,30.02,SSW,208,5.0,8.0,89,0.13,,OVC045,0.25,VWS V14.01,2013-01-11 14:21:00,
2013-01-11 09:22:00,54.1,50.9,30.02,SW,226,12.0,16.0,89,0.13,,OVC045,0.25,VWS V14.01,2013-01-11 14:22:00,
2013-01-11 09:23:00,54.0,50.8,30.02,South,181,5.0,16.0,89,0.13,,RA,0.25,VWS V14.01,2013-01-11 14:23:00,
2013-01-11 09:24:00,54.0,50.8,30.02,SSW,200,9.0,9.0,89,0.12,,OVC045,0.25,VWS V14.01,2013-01-11 14:24:00,
2013-01-11 09:25:00,54.0,50.8,30.03,South,176,6.0,13.0,89,0.12,,OVC045,0.25,VWS V14.01,2013-01-11 14:25:00,
2013-01-11 09:26:00,54.0,50.8,30.03,South,177,11.0,14.0,89,0.12,,OVC045,0.25,VWS V14.01,2013-01-11 14:26:00,
2013-01-11 09:27:00,53.9,50.7,30.03,SW,225,6.0,14.0,89,0.12,,OVC045,0.25,VWS V14.01,2013-01-11 14:27:00,
2013-01-11 09:28:00,54.0,50.8,30.03,SSW,212,8.0,14.0,89,0.12,,RA,0.25,VWS V14.01,2013-01-11 14:28:00,
2013-01-11 09:29:00,53.9,50.7,30.03,SE,143,6.0,16.0,89,0.12,,OVC045,0.25,VWS V14.01,2013-01-11 14:29:00,
2013-01-11 09:30:00,53.9,50.7,30.03,SSW,198,10.0,10.0,89,0.11,,OVC045,0.25,VWS V14.01,2013-01-11 14:30:00,
2013-01-11 09:31:00,53.9,50.7,30.03,SW,233,8.0,13.0,89,0.11,,OVC045,0.25,VWS V14.01,2013-01-11 14:31:00,
2013-01-11 09:32:00,53.9,50.7,30.04,SW,222,6.0,10.0,89,0.11,,OVC045,0.25,VWS V14.01,2013-01-11 14:32:00,
2013-01-11 09:33:00,53.9,50.7,30.04,WSW,253,11.0,11.0,89,0.10,,RA,0.25,VWS V14.01,2013-01-11 14:33:00,
2013-01-11 09:34:00,53.8,50.9,30.03,SSE,162,7.0,11.0,90,0.10,,OVC045,0.25,VWS V14.01,2013-01-11 14:34:00,
2013-01-11 09:35:00,53.7,50.8,30.03,SSE,161,9.0,11.0,90,0.11,,OVC045,0.26,VWS V14.01,2013-01-11 14:35:00,
2013-01-11 09:36:00,53.7,50.8,30.03,SSW,194,10.0,10.0,90,0.10,,OVC045,0.26,VWS V14.01,2013-01-11 14:36:00,
2013-01-11 09:37:00,53.6,50.7,30.03,South,177,6.0,11.0,90,0.10,,OVC045,0.26,VWS V14.01,2013-01-11 14:37:00,
2013-01-11 09:38:00,53.6,50.7,30.03,SSW,201,10.0,12.0,90,0.10,,RA,0.26,VWS V14.01,2013-01-11 14:38:00,
2013-01-11 09:39:00,53.6,50.7,30.04,South,174,12.0,15.0,90,0.09,,OVC045,0.26,VWS V14.01,2013-01-11 14:39:00,
2013-01-11 09:40:00,53.6,50.7,30.04,SSW,195,10.0,15.0,90,0.09,,OVC045,0.26,VWS V14.01,2013-01-11 14:40:00,
2013-01-11 09:41:00,53.6,50.7,30.04,SSW,210,5.0,10.0,90,0.08,,OVC045,0.26,VWS V14.01,2013-01-11 14:41:00,
2013-01-11 09:42:00,53.6,50.7,30.04,SSW,208,6.0,10.0,90,0.08,,OVC045,0.26,VWS V14.01,2013-01-11 14:42:00,
2013-01-11 09:43:00,53.5,50.6,30.04,South,186,8.0,10.0,90,0.08,,RA,0.26,VWS V14.01,2013-01-11 14:43:00,
2013-01-11 09:44:00,53.6,51.0,30.03,SW,221,10.0,14.0,91,0.08,,OVC045,0.26,VWS V14.01,2013-01-11 14:44:00,
2013-01-11 09:45:00,53.6,50.7,30.03,SSW,208,8.0,17.0,90,0.08,,OVC045,0.26,VWS V14.01,2013-01-11 14:45:00,
2013-01-11 09:46:00,53.6,50.7,30.04,SSW,198,10.0,13.0,90,0.07,,OVC045,0.26,VWS V14.01,2013-01-11 14:46:00,
2013-01-11 09:47:00,53.6,50.7,30.04,SSE,159,8.0,13.0,90,0.06,,OVC045,0.26,VWS V14.01,2013-01-11 14:47:00,
2013-01-11 09:48:00,53.6,50.7,30.04,SSW,200,10.0,13.0,90,0.06,,RA,0.26,VWS V14.01,2013-01-11 14:48:00,
2013-01-11 09:49:00,53.5,50.7,30.04,South,169,10.0,10.0,90,0.06,,OVC045,0.26,VWS V14.01,2013-01-11 14:49:00,
2013-01-11 09:50:00,53.5,50.7,30.03,SSW,203,6.0,12.0,90,0.06,,OVC045,0.26,VWS V14.01,2013-01-11 14:50:00,
2013-01-11 09:51:00,53.5,50.9,30.03,South,188,9.0,12.0,91,0.07,,OVC045,0.27,VWS V14.01,2013-01-11 14:51:00,
2013-01-11 09:52:00,53.4,50.5,30.03,SSE,158,7.0,12.0,90,0.07,,OVC045,0.27,VWS V14.01,2013-01-11 14:52:00,
2013-01-11 09:53:00,53.4,50.5,30.03,SSE,155,11.0,12.0,90,0.07,,RA,0.27,VWS V14.01,2013-01-11 14:53:00,
2013-01-11 09:54:00,53.5,50.7,30.03,South,183,9.0,13.0,90,0.07,,OVC045,0.27,VWS V14.01,2013-01-11 14:54:00,
2013-01-11 09:55:00,53.5,50.7,30.03,SSW,208,13.0,16.0,90,0.07,,OVC045,0.27,VWS V14.01,2013-01-11 14:55:00,
2013-01-11 09:56:00,53.5,50.7,30.03,SSE,155,7.0,16.0,90,0.07,,OVC045,0.27,VWS V14.01,2013-01-11 14:56:00,
2013-01-11 09:57:00,53.5,50.7,30.03,SW,219,9.0,11.0,90,0.07,,OVC045,0.27,VWS V14.01,2013-01-11 14:57:00,
2013-01-11 09:58:00,53.5,50.6,30.03,SW,219,8.0,11.0,90,0.07,,RA,0.27,VWS V14.01,2013-01-11 14:58:00,
2013-01-11 09:59:00,53.5,50.7,30.03,South,179,5.0,13.0,90,0.06,,OVC045,0.27,VWS V14.01,2013-01-11 14:59:00,
2013-01-11 10:00:00,53.5,50.7,30.03,SSW,200,6.0,11.0,90,0.06,,OVC045,0.27,VWS V14.01,2013-01-11 15:00:00,
2013-01-11 10:01:00,53.4,50.5,30.03,SSW,195,11.0,13.0,90,0.06,,OVC045,0.27,VWS V14.01,2013-01-11 15:01:00,
2013-01-11 10:02:00,53.5,50.7,30.03,SSE,165,8.0,12.0,90,0.05,,OVC045,0.27,VWS V14.01,2013-01-11 15:02:00,
2013-01-11 10:03:00,53.4,50.5,30.03,South,178,9.0,12.0,90,0.05,,-RA,0.27,VWS V14.01,2013-01-11 15:03:00,
2013-01-11 10:04:00,53.5,50.7,30.03,SW,219,9.0,16.0,90,0.04,,OVC045,0.27,VWS V14.01,2013-01-11 15:04:00,
2013-01-11 10:05:00,53.5,50.7,30.03,SSW,210,9.0,15.0,90,0.03,,OVC045,0.27,VWS V14.01,2013-01-11 15:05:00,
2013-01-11 10:06:00,53.5,50.7,30.03,SSW,195,5.0,12.0,90,0.03,,OVC045,0.27,VWS V14.01,2013-01-11 15:06:00,
2013-01-11 10:07:00,53.5,50.7,30.03,SSW,194,8.0,14.0,90,0.02,,OVC045,0.27,VWS V14.01,2013-01-11 15:07:00,
2013-01-11 10:08:00,53.5,50.6,30.03,South,180,8.0,14.0,90,0.02,,-RA,0.27,VWS V14.01,2013-01-11 15:08:00,
2013-01-11 10:09:00,53.5,50.7,30.03,SSW,211,9.0,10.0,90,0.02,,OVC045,0.27,VWS V14.01,2013-01-11 15:09:00,
2013-01-11 10:10:00,53.5,50.7,30.03,SSW,203,7.0,10.0,90,0.02,,OVC045,0.27,VWS V14.01,2013-01-11 15:10:00,
2013-01-11 10:11:00,53.5,50.7,30.03,South,172,4.0,9.0,90,0.02,,OVC045,0.27,VWS V14.01,2013-01-11 15:11:00,
2013-01-11 10:12:00,53.5,50.7,30.03,SSE,163,14.0,15.0,90,0.02,,OVC045,0.27,VWS V14.01,2013-01-11 15:12:00,
2013-01-11 10:13:00,53.5,50.6,30.03,SSE,150,8.0,15.0,90,0.02,,-RA,0.27,VWS V14.01,2013-01-11 15:13:00,
2013-01-11 10:14:00,53.6,50.7,30.03,SW,230,4.0,13.0,90,0.02,,OVC045,0.27,VWS V14.01,2013-01-11 15:14:00,
2013-01-11 10:15:00,53.5,50.7,30.03,SSW,200,7.0,12.0,90,0.02,,OVC045,0.27,VWS V14.01,2013-01-11 15:15:00,
2013-01-11 10:16:00,53.5,50.7,30.03,SSW,193,7.0,13.0,90,0.02,,OVC045,0.27,VWS V14.01,2013-01-11 15:16:00,
2013-01-11 10:17:00,53.6,50.7,30.03,SSW,207,7.0,13.0,90,0.02,,OVC045,0.27,VWS V14.01,2013-01-11 15:17:00,
2013-01-11 10:18:00,53.6,50.7,30.03,SSE,149,8.0,9.0,90,0.02,,-RA,0.27,VWS V14.01,2013-01-11 15:18:00,
2013-01-11 10:19:00,53.6,50.7,30.03,SSE,157,9.0,13.0,90,0.02,,OVC045,0.27,VWS V14.01,2013-01-11 15:19:00,
2013-01-11 10:20:00,53.6,50.7,30.03,South,174,8.0,13.0,90,0.02,,OVC045,0.27,VWS V14.01,2013-01-11 15:20:00,
2013-01-11 10:21:00,53.6,50.7,30.03,SSE,156,10.0,10.0,90,0.02,,OVC045,0.27,VWS V14.01,2013-01-11 15:21:00,
2013-01-11 10:22:00,53.6,50.7,30.02,SSW,206,9.0,15.0,90,0.02,,OVC045,0.27,VWS V14.01,2013-01-11 15:22:00,
2013-01-11 10:23:00,53.6,50.7,30.02,SE,133,9.0,15.0,90,0.02,,-RA,0.27,VWS V14.01,2013-01-11 15:23:00,
2013-01-11 10:24:00,53.6,50.7,30.03,SW,232,12.0,14.0,90,0.03,,OVC045,0.28,VWS V14.01,2013-01-11 15:24:00,
2013-01-11 10:25:00,53.6,50.7,30.03,South,186,9.0,13.0,90,0.03,,OVC045,0.28,VWS V14.01,2013-01-11 15:25:00,
2013-01-11 10:26:00,53.6,50.7,30.03,South,177,7.0,13.0,90,0.03,,OVC045,0.28,VWS V14.01,2013-01-11 15:26:00,
2013-01-11 10:27:00,53.6,50.7,30.02,SSW,197,9.0,17.0,90,0.04,,OVC045,0.29,VWS V14.01,2013-01-11 15:27:00,
2013-01-11 10:28:00,53.6,50.7,30.02,SSW,205,4.0,17.0,90,0.04,,-RA,0.29,VWS V14.01,2013-01-11 15:28:00,
2013-01-11 10:29:00,53.6,50.7,30.02,SSW,194,7.0,18.0,90,0.04,,OVC045,0.29,VWS V14.01,2013-01-11 15:29:00,
2013-01-11 10:30:00,53.6,50.7,30.02,SE,124,8.0,11.0,90,0.05,,OVC045,0.30,VWS V14.01,2013-01-11 15:30:00,
2013-01-11 10:31:00,53.5,50.7,30.02,SE,141,13.0,14.0,90,0.05,,OVC045,0.30,VWS V14.01,2013-01-11 15:31:00,
2013-01-11 10:32:00,53.5,50.9,30.02,SSE,155,17.0,18.0,91,0.05,,OVC045,0.30,VWS V14.01,2013-01-11 15:32:00,
2013-01-11 10:33:00,53.5,50.9,30.02,South,180,13.0,18.0,91,0.05,,-RA,0.30,VWS V14.01,2013-01-11 15:33:00,
2013-01-11 10:34:00,53.5,50.9,30.02,SSW,200,18.0,18.0,91,0.05,,OVC045,0.30,VWS V14.01,2013-01-11 15:34:00,
2013-01-11 10:35:00,53.5,50.9,30.02,SSE,163,16.0,18.0,91,0.05,,OVC045,0.30,VWS V14.01,2013-01-11 15:35:00,
2013-01-11 10:36:00,53.5,50.9,30.02,SSE,159,8.0,20.0,91,0.04,,OVC045,0.30,VWS V14.01,2013-01-11 15:36:00,
2013-01-11 10:37:00,53.5,50.9,30.02,South,187,9.0,20.0,91,0.04,,OVC045,0.30,VWS V14.01,2013-01-11 15:37:00,
2013-01-11 10:38:00,53.5,50.9,30.02,SE,132,13.0,18.0,91,0.04,,-RA,0.30,VWS V14.01,2013-01-11 15:38:00,
2013-01-11 10:39:00,53.5,50.9,30.02,SSE,161,10.0,14.0,91,0.04,,OVC045,0.30,VWS V14.01,2013-01-11 15:39:00,
2013-01-11 10:40:00,53.5,50.9,30.01,South,180,14.0,14.0,91,0.05,,OVC045,0.31,VWS V14.01,2013-01-11 15:40:00,
2013-01-11 10:41:00,53.5,50.9,30.02,South,174,6.0,14.0,91,0.05,,OVC045,0.31,VWS V14.01,2013-01-11 15:41:00,
2013-01-11 10:42:00,53.5,50.9,30.01,SW,221,9.0,13.0,91,0.05,,OVC045,0.31,VWS V14.01,2013-01-11 15:42:00,
2013-01-11 10:43:00,53.5,50.9,30.01,SSW,193,7.0,13.0,91,0.05,,-RA,0.31,VWS V14.01,2013-01-11 15:43:00,
2013-01-11 10:44:00,53.5,50.9,30.01,South,172,11.0,17.0,91,0.05,,OVC045,0.31,VWS V14.01,2013-01-11 15:44:00,
2013-01-11 10:45:00,53.5,50.9,30.01,SSW,193,8.0,17.0,91,0.05,,OVC045,0.31,VWS V14.01,2013-01-11 15:45:00,
2013-01-11 10:46:00,53.5,50.9,30.00,SE,135,17.0,17.0,91,0.06,,OVC045,0.32,VWS V14.01,2013-01-11 15:46:00,
2013-01-11 10:47:00,53.6,51.0,30.00,SSE,165,10.0,17.0,91,0.06,,OVC045,0.32,VWS V14.01,2013-01-11 15:47:00,
2013-01-11 10:48:00,53.6,51.0,30.01,SSE,163,9.0,17.0,91,0.06,,-RA,0.32,VWS V14.01,2013-01-11 15:48:00,
2013-01-11 10:49:00,53.6,51.0,30.01,South,179,10.0,15.0,91,0.06,,OVC045,0.32,VWS V14.01,2013-01-11 15:49:00,
2013-01-11 10:50:00,53.6,51.0,30.00,SSE,155,9.0,14.0,91,0.06,,OVC045,0.32,VWS V14.01,2013-01-11 15:50:00,
2013-01-11 10:51:00,53.6,51.0,30.00,South,188,4.0,11.0,91,0.06,,OVC045,0.32,VWS V14.01,2013-01-11 15:51:00,
2013-01-11 10:52:00,53.7,51.1,30.00,South,169,15.0,15.0,91,0.05,,OVC045,0.32,VWS V14.01,2013-01-11 15:52:00,
2013-01-11 10:53:00,53.6,51.0,30.00,South,170,10.0,15.0,91,0.05,,-RA,0.32,VWS V14.01,2013-01-11 15:53:00,
2013-01-11 10:54:00,53.7,51.1,30.00,SSE,152,12.0,12.0,91,0.05,,OVC045,0.32,VWS V14.01,2013-01-11 15:54:00,
2013-01-11 10:55:00,53.7,51.4,30.00,SSE,163,6.0,12.0,92,0.05,,OVC045,0.32,VWS V14.01,2013-01-11 15:55:00,
2013-01-11 10:56:00,53.7,51.4,30.00,South,181,17.0,17.0,92,0.05,,OVC045,0.32,VWS V14.01,2013-01-11 15:56:00,
2013-01-11 10:57:00,53.8,51.2,29.99,SSE,162,11.0,17.0,91,0.05,,OVC045,0.32,VWS V14.01,2013-01-11 15:57:00,
2013-01-11 10:58:00,53.8,51.2,30.00,SSW,194,7.0,17.0,91,0.05,,-RA,0.32,VWS V14.01,2013-01-11 15:58:00,
2013-01-11 10:59:00,53.9,51.3,30.00,South,169,9.0,10.0,91,0.05,,OVC045,0.32,VWS V14.01,2013-01-11 15:59:00,
2013-01-11 11:00:00,53.9,51.3,29.99,SSE,155,11.0,12.0,91,0.05,,OVC045,0.32,VWS V14.01,2013-01-11 16:00:00,
2013-01-11 11:01:00,53.9,51.3,29.99,SSW,210,12.0,14.0,91,0.05,,OVC045,0.32,VWS V14.01,2013-01-11 16:01:00,
2013-01-11 11:02:00,53.9,51.3,29.99,SSW,197,7.0,14.0,91,0.05,,OVC045,0.32,VWS V14.01,2013-01-11 16:02:00,
2013-01-11 11:03:00,53.9,51.3,29.99,SSE,159,6.0,14.0,91,0.05,,RA,0.32,VWS V14.01,2013-01-11 16:03:00,
2013-01-11 11:04:00,53.9,51.3,29.99,SSE,159,5.0,15.0,91,0.05,,OVC045,0.32,VWS V14.01,2013-01-11 16:04:00,
2013-01-11 11:05:00,53.9,51.3,29.99,SSE,165,10.0,20.0,91,0.05,,OVC045,0.32,VWS V14.01,2013-01-11 16:05:00,
2013-01-11 11:06:00,54.0,51.4,29.99,SSE,167,10.0,16.0,91,0.05,,OVC045,0.32,VWS V14.01,2013-01-11 16:06:00,
2013-01-11 11:07:00,54.1,51.5,29.99,SSW,200,9.0,16.0,91,0.05,,OVC045,0.32,VWS V14.01,2013-01-11 16:07:00,
2013-01-11 11:08:00,54.1,51.5,29.99,South,184,9.0,16.0,91,0.05,,RA,0.32,VWS V14.01,2013-01-11 16:08:00,
2013-01-11 11:09:00,54.2,51.6,29.99,SSE,161,10.0,13.0,91,0.05,,OVC045,0.32,VWS V14.01,2013-01-11 16:09:00,
2013-01-11 11:10:00,54.3,51.7,29.99,South,186,7.0,13.0,91,0.05,,OVC045,0.32,VWS V14.01,2013-01-11 16:10:00,
2013-01-11 11:11:00,54.3,51.7,29.99,SSE,163,7.0,13.0,91,0.05,,OVC045,0.32,VWS V14.01,2013-01-11 16:11:00,
2013-01-11 11:12:00,54.4,51.8,29.99,SSE,159,11.0,11.0,91,0.05,,OVC045,0.32,VWS V14.01,2013-01-11 16:12:00,
2013-01-11 11:13:00,54.5,51.9,29.99,South,177,13.0,13.0,91,0.05,,RA,0.32,VWS V14.01,2013-01-11 16:13:00,
2013-01-11 11:14:00,54.7,52.1,29.99,SSE,156,5.0,14.0,91,0.05,,OVC045,0.32,VWS V14.01,2013-01-11 16:14:00,
2013-01-11 11:15:00,54.8,52.2,29.99,SSW,197,14.0,14.0,91,0.05,,OVC045,0.32,VWS V14.01,2013-01-11 16:15:00,
2013-01-11 11:16:00,54.9,52.3,29.99,South,191,11.0,14.0,91,0.05,,OVC045,0.32,VWS V14.01,2013-01-11 16:16:00,
2013-01-11 11:17:00,55.0,52.4,29.99,SSE,165,7.0,13.0,91,0.05,,OVC045,0.32,VWS V14.01,2013-01-11 16:17:00,
2013-01-11 11:18:00,55.0,52.4,29.99,SSE,152,8.0,13.0,91,0.05,,RA,0.32,VWS V14.01,2013-01-11 16:18:00,
2013-01-11 11:19:00,55.3,52.7,29.99,South,186,11.0,11.0,91,0.05,,OVC045,0.32,VWS V14.01,2013-01-11 16:19:00,
2013-01-11 11:20:00,55.4,52.8,29.99,South,188,8.0,13.0,91,0.05,,OVC045,0.32,VWS V14.01,2013-01-11 16:20:00,
2013-01-11 11:21:00,55.5,52.6,30.00,South,174,8.0,14.0,90,0.05,,OVC045,0.32,VWS V14.01,2013-01-11 16:21:00,
2013-01-11 11:22:00,55.6,52.7,29.99,SSE,150,11.0,14.0,90,0.05,,RA,0.32,VWS V14.01,2013-01-11 16:22:00,
2013-01-11 11:23:00,55.7,52.8,29.99,SSE,147,13.0,15.0,90,0.05,,OVC045,0.32,VWS V14.01,2013-01-11 16:23:00,
2013-01-11 11:24:00,55.8,52.9,29.99,SSW,194,6.0,19.0,90,0.05,,OVC045,0.32,VWS V14.01,2013-01-11 16:24:00,
2013-01-11 11:25:00,55.9,53.0,29.99,South,186,8.0,13.0,90,0.04,,OVC045,0.32,VWS V14.01,2013-01-11 16:25:00,
2013-01-11 11:26:00,56.0,53.1,29.99,SSW,192,11.0,12.0,90,0.04,,OVC045,0.32,VWS V14.01,2013-01-11 16:26:00,
2013-01-11 11:27:00,56.1,52.9,30.00,SSW,211,6.0,11.0,89,0.04,,RA,0.32,VWS V14.01,2013-01-11 16:27:00,
2013-01-11 11:28:00,56.2,53.0,30.00,SSW,210,12.0,16.0,89,0.03,,OVC045,0.32,VWS V14.01,2013-01-11 16:28:00,
2013-01-11 11:29:00,56.3,53.1,30.00,SSW,205,7.0,14.0,89,0.03,,OVC045,0.32,VWS V14.01,2013-01-11 16:29:00,
2013-01-11 11:30:00,56.4,53.2,30.00,South,187,5.0,12.0,89,0.03,,OVC045,0.32,VWS V14.01,2013-01-11 16:30:00,
2013-01-11 11:31:00,56.5,53.3,30.00,SSE,160,6.0,9.0,89,0.02,,OVC045,0.32,VWS V14.01,2013-01-11 16:31:00,
2013-01-11 11:32:00,56.6,53.4,30.00,SW,214,5.0,12.0,89,0.02,,RA,0.32,VWS V14.01,2013-01-11 16:32:00,
2013-01-11 11:33:00,56.7,53.5,30.00,South,183,9.0,16.0,89,0.02,,OVC045,0.32,VWS V14.01,2013-01-11 16:33:00,
2013-01-11 11:34:00,56.8,53.3,30.00,SSW,203,18.0,18.0,88,0.02,,OVC045,0.32,VWS V14.01,2013-01-11 16:34:00,
2013-01-11 11:35:00,56.8,53.0,30.00,SSE,167,12.0,18.0,87,0.02,,OVC045,0.32,VWS V14.01,2013-01-11 16:35:00,
2013-01-11 11:36:00,56.9,53.4,30.00,SW,226,9.0,14.0,88,0.02,,OVC045,0.32,VWS V14.01,2013-01-11 16:36:00,
2013-01-11 11:37:00,57.0,53.5,30.00,SSW,194,8.0,12.0,88,0.02,,RA,0.32,VWS V14.01,2013-01-11 16:37:00,
2013-01-11 11:38:00,57.0,53.2,30.00,SSW,193,9.0,12.0,87,0.02,,OVC045,0.32,VWS V14.01,2013-01-11 16:38:00,
2013-01-11 11:39:00,57.1,53.3,29.99,SW,226,8.0,12.0,87,0.02,,OVC045,0.32,VWS V14.01,2013-01-11 16:39:00,
2013-01-11 11:40:00,57.1,53.3,29.99,SW,228,7.0,12.0,87,0.02,,OVC045,0.32,VWS V14.01,2013-01-11 16:40:00,
2013-01-11 11:41:00,57.1,53.3,29.99,South,169,14.0,14.0,87,0.01,,OVC045,0.32,VWS V14.01,2013-01-11 16:41:00,
2013-01-11 11:42:00,57.2,53.1,29.99,South,169,10.0,15.0,86,0.01,,RA,0.32,VWS V14.01,2013-01-11 16:42:00,
2013-01-11 11:43:00,57.3,53.5,29.99,SSW,211,8.0,15.0,87,0.01,,OVC045,0.32,VWS V14.01,2013-01-11 16:43:00,
2013-01-11 11:44:00,57.4,53.6,29.99,SSE,162,17.0,18.0,87,0.01,,OVC045,0.32,VWS V14.01,2013-01-11 16:44:00,
2013-01-11 11:45:00,57.4,53.2,29.99,SW,235,11.0,18.0,86,0.01,,OVC045,0.32,VWS V14.01,2013-01-11 16:45:00,
2013-01-11 11:46:00,57.5,53.3,29.99,SSW,211,10.0,15.0,86,0.01,,OVC045,0.32,VWS V14.01,2013-01-11 16:46:00,
2013-01-11 11:47:00,57.5,53.0,29.99,SSW,193,12.0,15.0,85,0.00,,RA,0.32,VWS V14.01,2013-01-11 16:47:00,
2013-01-11 11:48:00,57.5,53.3,29.99,SSW,193,7.0,13.0,86,0.00,,OVC045,0.32,VWS V14.01,2013-01-11 16:48:00,
2013-01-11 11:49:00,57.6,53.5,29.99,SSW,205,7.0,11.0,86,0.00,,OVC045,0.32,VWS V14.01,2013-01-11 16:49:00,
2013-01-11 11:50:00,57.7,53.5,29.99,WSW,255,7.0,15.0,86,0.00,,OVC045,0.32,VWS V14.01,2013-01-11 16:50:00,
2013-01-11 11:51:00,57.8,53.7,29.99,WSW,239,14.0,15.0,86,0.00,,OVC045,0.32,VWS V14.01,2013-01-11 16:51:00,
2013-01-11 11:52:00,57.8,53.3,29.99,SW,226,13.0,16.0,85,0.00,,RA,0.32,VWS V14.01,2013-01-11 16:52:00,
2013-01-11 11:53:00,57.9,53.4,29.98,SW,221,13.0,13.0,85,0.00,,OVC045,0.32,VWS V14.01,2013-01-11 16:53:00,
2013-01-11 11:54:00,58.0,53.5,29.98,SSW,204,10.0,13.0,85,0.00,,OVC045,0.32,VWS V14.01,2013-01-11 16:54:00,
2013-01-11 11:55:00,58.0,53.5,29.98,SSE,163,8.0,16.0,85,0.00,,OVC045,0.32,VWS V14.01,2013-01-11 16:55:00,
2013-01-11 11:56:00,58.1,53.6,29.98,WSW,237,6.0,15.0,85,0.00,,OVC045,0.32,VWS V14.01,2013-01-11 16:56:00,
2013-01-11 11:57:00,58.2,53.7,29.99,SSE,165,13.0,13.0,85,0.00,,RA,0.32,VWS V14.01,2013-01-11 16:57:00,
2013-01-11 11:58:00,58.3,53.5,29.98,SSE,166,7.0,18.0,84,0.00,,OVC045,0.32,VWS V14.01,2013-01-11 16:58:00,
2013-01-11 11:59:00,58.4,53.6,29.98,SSW,207,10.0,14.0,84,0.00,,OVC045,0.32,VWS V14.01,2013-01-11 16:59:00,
2013-01-11 12:00:00,58.4,53.3,29.98,West,269,8.0,17.0,83,0.00,,OVC045,0.32,VWS V14.01,2013-01-11 17:00:00,
2013-01-11 12:01:00,58.4,53.3,29.98,SSW,212,14.0,21.0,83,0.00,,OVC045,0.32,VWS V14.01,2013-01-11 17:01:00,
2013-01-11 12:02:00,58.4,53.3,29.98,SW,219,12.0,21.0,83,0.00,,SCT090,0.32,VWS V14.01,2013-01-11 17:02:00,
2013-01-11 12:03:00,58.5,53.4,29.98,SW,214,7.0,15.0,83,0.00,,OVC045,0.32,VWS V14.01,2013-01-11 17:03:00,
2013-01-11 12:04:00,58.5,53.4,29.99,SW,224,13.0,16.0,83,0.00,,OVC045,0.32,VWS V14.01,2013-01-11 17:04:00,
2013-01-11 12:05:00,58.5,53.4,29.98,South,184,14.0,19.0,83,0.00,,OVC045,0.32,VWS V14.01,2013-01-11 17:05:00,
2013-01-11 12:06:00,58.5,53.4,29.99,WSW,239,12.0,19.0,83,0.00,,OVC045,0.32,VWS V14.01,2013-01-11 17:06:00,
2013-01-11 12:07:00,58.5,53.4,29.99,SW,235,12.0,17.0,83,0.00,,SCT090,0.32,VWS V14.01,2013-01-11 17:07:00,
2013-01-11 12:08:00,58.6,53.5,29.98,SE,136,12.0,17.0,83,0.00,,OVC045,0.32,VWS V14.01,2013-01-11 17:08:00,
2013-01-11 12:09:00,58.6,53.5,29.98,SSW,199,12.0,24.0,83,0.00,,OVC045,0.32,VWS V14.01,2013-01-11 17:09:00,
2013-01-11 12:10:00,58.6,53.1,29.98,SW,227,9.0,24.0,82,0.00,,OVC045,0.32,VWS V14.01,2013-01-11 17:10:00,
2013-01-11 12:11:00,58.6,53.5,29.98,SSW,210,15.0,17.0,83,0.00,,OVC045,0.32,VWS V14.01,2013-01-11 17:11:00,
2013-01-11 12:12:00,58.6,53.1,29.98,SW,217,17.0,18.0,82,0.00,,SCT090,0.32,VWS V14.01,2013-01-11 17:12:00,
2013-01-11 12:13:00,58.7,53.2,29.98,WSW,248,17.0,21.0,82,0.00,,OVC045,0.32,VWS V14.01,2013-01-11 17:13:00,
2013-01-11 12:14:00,58.7,53.2,29.98,SW,221,18.0,20.0,82,0.00,,OVC045,0.32,VWS V14.01,2013-01-11 17:14:00,
2013-01-11 12:15:00,58.7,53.2,29.98,SW,222,13.0,18.0,82,0.00,,OVC045,0.32,VWS V14.01,2013-01-11 17:15:00,
2013-01-11 12:16:00,58.7,53.6,29.98,South,170,18.0,18.0,83,0.00,,OVC045,0.32,VWS V14.01,2013-01-11 17:16:00,
2013-01-11 12:17:00,58.8,53.3,29.98,SW,224,15.0,20.0,82,0.00,,SCT090,0.32,VWS V14.01,2013-01-11 17:17:00,
2013-01-11 12:18:00,58.7,53.2,29.98,SW,229,13.0,21.0,82,0.00,,OVC045,0.32,VWS V14.01,2013-01-11 17:18:00,
2013-01-11 12:19:00,58.7,53.2,29.98,SW,214,14.0,19.0,82,0.00,,OVC045,0.32,VWS V14.01,2013-01-11 17:19:00,
2013-01-11 12:20:00,58.7,53.6,29.98,SSW,211,20.0,21.0,83,0.00,,OVC045,0.32,VWS V14.01,2013-01-11 17:20:00,
2013-01-11 12:21:00,58.6,53.1,29.98,South,181,16.0,21.0,82,0.00,,OVC045,0.32,VWS V14.01,2013-01-11 17:21:00,
2013-01-11 12:22:00,58.6,53.1,29.98,SW,224,14.0,21.0,82,0.00,,SCT090,0.32,VWS V14.01,2013-01-11 17:22:00,
2013-01-11 12:23:00,58.7,53.6,29.98,SW,215,9.0,21.0,83,0.00,,OVC045,0.32,VWS V14.01,2013-01-11 17:23:00,
2013-01-11 12:24:00,58.7,53.6,29.97,SW,224,13.0,17.0,83,0.00,,OVC045,0.32,VWS V14.01,2013-01-11 17:24:00,
2013-01-11 12:25:00,58.7,53.6,29.98,SW,235,15.0,18.0,83,0.00,,OVC045,0.32,VWS V14.01,2013-01-11 17:25:00,
2013-01-11 12:26:00,58.8,53.7,29.98,SW,228,13.0,19.0,83,0.00,,OVC045,0.32,VWS V14.01,2013-01-11 17:26:00,
2013-01-11 12:27:00,58.8,53.7,29.97,SSW,200,11.0,16.0,83,0.00,,SCT090,0.32,VWS V14.01,2013-01-11 17:27:00,
2013-01-11 12:28:00,58.9,53.8,29.98,SW,233,13.0,14.0,83,0.00,,OVC045,0.32,VWS V14.01,2013-01-11 17:28:00,
2013-01-11 12:29:00,59.0,53.8,29.97,SSW,211,11.0,15.0,83,0.00,,OVC045,0.32,VWS V14.01,2013-01-11 17:29:00,
2013-01-11 12:30:00,59.0,53.8,29.97,SSE,160,10.0,16.0,83,0.00,,OVC045,0.32,VWS V14.01,2013-01-11 17:30:00,
2013-01-11 12:31:00,59.1,54.0,29.97,SW,231,21.0,21.0,83,0.00,,OVC045,0.32,VWS V14.01,2013-01-11 17:31:00,
2013-01-11 12:32:00,59.1,53.6,29.97,SSW,205,11.0,21.0,82,0.00,,BKN028,0.32,VWS V14.01,2013-01-11 17:32:00,
2013-01-11 12:33:00,59.1,53.6,29.97,South,173,10.0,18.0,82,0.00,,OVC045,0.32,VWS V14.01,2013-01-11 17:33:00,
2013-01-11 12:34:00,59.2,54.0,29.97,SSW,212,14.0,16.0,83,0.00,,OVC045,0.32,VWS V14.01,2013-01-11 17:34:00,
2013-01-11 12:35:00,59.1,53.6,29.97,SSW,193,8.0,16.0,82,0.00,,OVC045,0.32,VWS V14.01,2013-01-11 17:35:00,
2013-01-11 12:36:00,59.1,53.6,29.97,SSW,207,11.0,14.0,82,0.00,,OVC045,0.32,VWS V14.01,2013-01-11 17:36:00,
2013-01-11 12:37:00,59.1,53.6,29.97,SSW,201,16.0,19.0,82,0.00,,BKN028,0.32,VWS V14.01,2013-01-11 17:37:00,
2013-01-11 12:38:00,59.0,53.5,29.97,SW,236,12.0,19.0,82,0.00,,OVC045,0.32,VWS V14.01,2013-01-11 17:38:00,
2013-01-11 12:39:00,59.0,53.5,29.97,SE,128,9.0,15.0,82,0.00,,OVC045,0.32,VWS V14.01,2013-01-11 17:39:00,
2013-01-11 12:40:00,58.9,53.8,29.97,SW,226,12.0,15.0,83,0.00,,OVC045,0.32,VWS V14.01,2013-01-11 17:40:00,
2013-01-11 12:41:00,58.9,53.8,29.97,South,172,17.0,17.0,83,0.00,,OVC045,0.32,VWS V14.01,2013-01-11 17:41:00,
2013-01-11 12:42:00,58.8,53.7,29.98,South,180,9.0,20.0,83,0.00,,BKN028,0.32,VWS V14.01,2013-01-11 17:42:00,
2013-01-11 12:43:00,58.8,53.7,29.97,SW,232,13.0,20.0,83,0.00,,OVC045,0.32,VWS V14.01,2013-01-11 17:43:00,
2013-01-11 12:44:00,58.7,53.6,29.98,SW,221,10.0,16.0,83,0.00,,OVC045,0.32,VWS V14.01,2013-01-11 17:44:00,
2013-01-11 12:45:00,58.7,53.6,29.97,SSW,199,10.0,18.0,83,0.00,,OVC045,0.32,VWS V14.01,2013-01-11 17:45:00,
2013-01-11 12:46:00,58.7,53.9,29.97,SW,214,7.0,14.0,84,0.00,,OVC045,0.32,VWS V14.01,2013-01-11 17:46:00,
2013-01-11 12:47:00,58.7,53.9,29.97,SSW,193,9.0,14.0,84,0.00,,BKN028,0.32,VWS V14.01,2013-01-11 17:47:00,
2013-01-11 12:48:00,58.6,53.5,29.97,SW,224,12.0,21.0,83,0.00,,OVC045,0.32,VWS V14.01,2013-01-11 17:48:00,
2013-01-11 12:49:00,58.6,53.5,29.97,SW,221,11.0,20.0,83,0.00,,OVC045,0.32,VWS V14.01,2013-01-11 17:49:00,
2013-01-11 12:50:00,58.5,53.7,29.97,SW,226,9.0,19.0,84,0.00,,OVC045,0.32,VWS V14.01,2013-01-11 17:50:00,
2013-01-11 12:51:00,58.5,53.7,29.97,SW,229,12.0,14.0,84,0.00,,OVC045,0.32,VWS V14.01,2013-01-11 17:51:00,
2013-01-11 12:52:00,58.5,53.7,29.97,SSW,204,8.0,14.0,84,0.00,,BKN028,0.32,VWS V14.01,2013-01-11 17:52:00,
2013-01-11 12:53:00,58.5,53.7,29.97,SSW,193,7.0,12.0,84,0.00,,OVC045,0.32,VWS V14.01,2013-01-11 17:53:00,
2013-01-11 12:54:00,58.5,54.0,29.97,SSW,197,7.0,10.0,85,0.00,,OVC045,0.32,VWS V14.01,2013-01-11 17:54:00,
2013-01-11 12:55:00,58.6,54.1,29.97,SW,217,15.0,21.0,85,0.00,,OVC045,0.32,VWS V14.01,2013-01-11 17:55:00,
2013-01-11 12:56:00,58.7,53.9,29.97,SW,235,11.0,21.0,84,0.00,,OVC045,0.32,VWS V14.01,2013-01-11 17:56:00,
2013-01-11 12:57:00,58.7,53.9,29.97,SW,218,13.0,18.0,84,0.00,,BKN028,0.32,VWS V14.01,2013-01-11 17:57:00,
2013-01-11 12:58:00,58.6,53.8,29.97,SW,233,13.0,18.0,84,0.00,,OVC045,0.32,VWS V14.01,2013-01-11 17:58:00,
2013-01-11 12:59:00,58.6,53.8,29.97,SW,224,15.0,18.0,84,0.00,,OVC045,0.32,VWS V14.01,2013-01-11 17:59:00,
2013-01-11 13:00:00,58.6,53.8,29.97,SSW,212,11.0,19.0,84,0.00,,OVC045,0.32,VWS V14.01,2013-01-11 18:00:00,
2013-01-11 13:01:00,58.6,53.8,29.97,SW,233,11.0,14.0,84,0.00,,OVC045,0.32,VWS V14.01,2013-01-11 18:01:00,
2013-01-11 13:02:00,58.6,53.8,29.97,SW,219,9.0,14.0,84,0.00,,OVC028,0.32,VWS V14.01,2013-01-11 18:02:00,
2013-01-11 13:03:00,58.7,54.2,29.97,WSW,245,12.0,13.0,85,0.00,,OVC045,0.32,VWS V14.01,2013-01-11 18:03:00,
2013-01-11 13:04:00,58.8,54.0,29.97,WSW,246,8.0,20.0,84,0.00,,OVC045,0.32,VWS V14.01,2013-01-11 18:04:00,
2013-01-11 13:05:00,58.9,53.8,29.97,WSW,243,13.0,17.0,83,0.00,,OVC045,0.32,VWS V14.01,2013-01-11 18:05:00,
2013-01-11 13:06:00,59.0,54.2,29.97,SW,232,9.0,17.0,84,0.00,,OVC045,0.32,VWS V14.01,2013-01-11 18:06:00,
2013-01-11 13:07:00,59.0,53.8,29.97,SW,214,9.0,13.0,83,0.00,,OVC028,0.32,VWS V14.01,2013-01-11 18:07:00,
2013-01-11 13:08:00,59.0,54.2,29.97,SSW,205,7.0,13.0,84,0.00,,OVC045,0.32,VWS V14.01,2013-01-11 18:08:00,
2013-01-11 13:09:00,59.0,54.2,29.97,SW,233,10.0,17.0,84,0.00,,OVC045,0.32,VWS V14.01,2013-01-11 18:09:00,
2013-01-11 13:10:00,59.1,54.0,29.97,SSW,207,9.0,17.0,83,0.00,,OVC045,0.32,VWS V14.01,2013-01-11 18:10:00,
2013-01-11 13:11:00,59.1,54.0,29.97,SSE,149,6.0,13.0,83,0.00,,OVC045,0.32,VWS V14.01,2013-01-11 18:11:00,
2013-01-11 13:12:00,59.1,54.3,29.97,SW,235,7.0,11.0,84,0.00,,OVC028,0.32,VWS V14.01,2013-01-11 18:12:00,
2013-01-11 13:13:00,59.1,54.3,29.97,SSW,208,11.0,11.0,84,0.00,,OVC045,0.32,VWS V14.01,2013-01-11 18:13:00,
2013-01-11 13:14:00,59.2,54.0,29.97,SW,235,10.0,12.0,83,0.00,,OVC045,0.32,VWS V14.01,2013-01-11 18:14:00,
2013-01-11 13:15:00,59.2,54.0,29.97,SSW,208,6.0,11.0,83,0.00,,OVC045,0.32,VWS V14.01,2013-01-11 18:15:00,
2013-01-11 13:16:00,59.2,54.0,29.97,SW,236,6.0,19.0,83,0.00,,OVC045,0.32,VWS V14.01,2013-01-11 18:16:00,
2013-01-11 13:17:00,59.3,54.2,29.97,SW,235,10.0,19.0,83,0.00,,OVC028,0.32,VWS V14.01,2013-01-11 18:17:00,
2013-01-11 13:18:00,59.3,54.2,29.97,SW,231,8.0,14.0,83,0.00,,OVC045,0.32,VWS V14.01,2013-01-11 18:18:00,
2013-01-11 13:19:00,59.5,54.3,29.97,WSW,250,8.0,10.0,83,0.00,,OVC045,0.32,VWS V14.01,2013-01-11 18:19:00,
2013-01-11 13:20:00,59.7,54.2,29.97,SW,236,11.0,14.0,82,0.00,,OVC045,0.32,VWS V14.01,2013-01-11 18:20:00,
2013-01-11 13:21:00,59.9,54.4,29.97,WSW,240,20.0,20.0,82,0.00,,OVC045,0.32,VWS V14.01,2013-01-11 18:21:00,
2013-01-11 13:22:00,60.0,54.5,29.97,SW,229,12.0,20.0,82,0.00,,OVC028,0.32,VWS V14.01,2013-01-11 18:22:00,
2013-01-11 13:23:00,60.1,53.9,29.97,SW,232,15.0,19.0,80,0.00,,OVC045,0.32,VWS V14.01,2013-01-11 18:23:00,
2013-01-11 13:24:00,60.2,54.0,29.97,WSW,239,13.0,19.0,80,0.00,,OVC045,0.32,VWS V14.01,2013-01-11 18:24:00,
2013-01-11 13:25:00,60.3,54.1,29.97,SSW,198,15.0,21.0,80,0.00,,OVC045,0.32,VWS V14.01,2013-01-11 18:25:00,
2013-01-11 13:26:00,60.3,54.1,29.97,WSW,243,12.0,21.0,80,0.00,,OVC045,0.32,VWS V14.01,2013-01-11 18:26:00,
2013-01-11 13:27:00,60.5,54.3,29.97,South,174,9.0,18.0,80,0.00,,OVC028,0.32,VWS V14.01,2013-01-11 18:27:00,
2013-01-11 13:28:00,60.6,54.1,29.97,WSW,239,10.0,18.0,79,0.00,,OVC045,0.32,VWS V14.01,2013-01-11 18:28:00,
2013-01-11 13:29:00,60.6,54.1,29.97,SW,233,16.0,16.0,79,0.00,,OVC045,0.32,VWS V14.01,2013-01-11 18:29:00,
2013-01-11 13:30:00,60.6,54.1,29.97,WSW,255,14.0,16.0,79,0.00,,OVC045,0.32,VWS V14.01,2013-01-11 18:30:00,
2013-01-11 13:31:00,60.5,53.6,29.97,SSW,207,17.0,22.0,78,0.00,,OVC045,0.32,VWS V14.01,2013-01-11 18:31:00,
2013-01-11 13:32:00,60.4,53.5,29.96,WSW,239,10.0,22.0,78,0.00,,OVC028,0.32,VWS V14.01,2013-01-11 18:32:00,
2013-01-11 13:33:00,60.3,53.4,29.97,SW,231,21.0,22.0,78,0.00,,OVC045,0.32,VWS V14.01,2013-01-11 18:33:00,
2013-01-11 13:34:00,60.2,53.3,29.97,ESE,120,16.0,22.0,78,0.00,,OVC045,0.32,VWS V14.01,2013-01-11 18:34:00,
2013-01-11 13:35:00,60.2,53.3,29.97,WSW,240,16.0,20.0,78,0.00,,OVC045,0.32,VWS V14.01,2013-01-11 18:35:00,
2013-01-11 13:36:00,60.1,53.6,29.97,SSW,204,13.0,19.0,79,0.00,,OVC045,0.32,VWS V14.01,2013-01-11 18:36:00,
2013-01-11 13:37:00,60.1,53.6,29.97,WSW,238,13.0,19.0,79,0.00,,OVC028,0.32,VWS V14.01,2013-01-11 18:37:00,
2013-01-11 13:38:00,60.0,53.1,29.97,SW,224,12.0,13.0,78,0.00,,OVC045,0.32,VWS V14.01,2013-01-11 18:38:00,
2013-01-11 13:39:00,59.9,53.4,29.97,SW,236,8.0,13.0,79,0.00,,OVC045,0.32,VWS V14.01,2013-01-11 18:39:00,
2013-01-11 13:40:00,59.9,53.4,29.97,SW,229,6.0,12.0,79,0.00,,OVC045,0.32,VWS V14.01,2013-01-11 18:40:00,
2013-01-11 13:41:00,59.9,53.4,29.97,SW,219,7.0,16.0,79,0.00,,OVC045,0.32,VWS V14.01,2013-01-11 18:41:00,
2013-01-11 13:42:00,59.9,53.4,29.97,SW,214,13.0,16.0,79,0.00,,OVC028,0.32,VWS V14.01,2013-01-11 18:42:00,
2013-01-11 13:43:00,59.9,53.4,29.97,WSW,245,8.0,15.0,79,0.00,,OVC045,0.32,VWS V14.01,2013-01-11 18:43:00,
2013-01-11 13:44:00,59.9,53.7,29.96,WSW,248,7.0,11.0,80,0.00,,OVC045,0.32,VWS V14.01,2013-01-11 18:44:00,
2013-01-11 13:45:00,59.9,53.7,29.97,SW,226,7.0,11.0,80,0.00,,OVC045,0.32,VWS V14.01,2013-01-11 18:45:00,
2013-01-11 13:46:00,59.9,53.4,29.96,West,264,5.0,11.0,79,0.00,,OVC045,0.32,VWS V14.01,2013-01-11 18:46:00,
2013-01-11 13:47:00,59.9,53.7,29.97,West,263,5.0,11.0,80,0.00,,OVC028,0.32,VWS V14.01,2013-01-11 18:47:00,
2013-01-11 13:48:00,59.9,53.7,29.97,WSW,248,10.0,11.0,80,0.00,,OVC045,0.32,VWS V14.01,2013-01-11 18:48:00,
2013-01-11 13:49:00,59.9,53.7,29.97,West,263,10.0,11.0,80,0.00,,OVC045,0.32,VWS V14.01,2013-01-11 18:49:00,
2013-01-11 13:50:00,59.9,53.7,29.97,WSW,248,8.0,15.0,80,0.00,,OVC045,0.32,VWS V14.01,2013-01-11 18:50:00,
2013-01-11 13:51:00,59.9,53.7,29.97,West,264,5.0,15.0,80,0.00,,OVC045,0.32,VWS V14.01,2013-01-11 18:51:00,
2013-01-11 13:52:00,59.8,53.6,29.97,SW,233,11.0,14.0,80,0.00,,OVC028,0.32,VWS V14.01,2013-01-11 18:52:00,
2013-01-11 13:53:00,59.8,53.3,29.97,West,260,9.0,15.0,79,0.00,,OVC045,0.32,VWS V14.01,2013-01-11 18:53:00,
2013-01-11 13:54:00,59.8,53.3,29.97,West,269,3.0,13.0,79,0.00,,OVC045,0.32,VWS V14.01,2013-01-11 18:54:00,
2013-01-11 13:55:00,59.7,53.2,29.97,SW,227,10.0,14.0,79,0.00,,OVC045,0.32,VWS V14.01,2013-01-11 18:55:00,
2013-01-11 13:56:00,59.7,53.2,29.97,South,183,11.0,14.0,79,0.00,,OVC045,0.32,VWS V14.01,2013-01-11 18:56:00,
2013-01-11 13:57:00,59.7,53.2,29.97,SW,225,11.0,14.0,79,0.00,,OVC028,0.32,VWS V14.01,2013-01-11 18:57:00,
2013-01-11 13:58:00,59.7,53.2,29.97,WSW,248,6.0,14.0,79,0.00,,OVC045,0.32,VWS V14.01,2013-01-11 18:58:00,
2013-01-11 13:59:00,59.8,53.6,29.97,WSW,243,8.0,14.0,80,0.00,,OVC045,0.32,VWS V14.01,2013-01-11 18:59:00,
2013-01-11 14:00:00,59.8,53.3,29.97,SW,218,9.0,11.0,79,0.00,,OVC045,0.32,VWS V14.01,2013-01-11 19:00:00,
2013-01-11 14:01:00,59.9,53.4,29.97,West,270,3.0,10.0,79,0.00,,OVC045,0.32,VWS V14.01,2013-01-11 19:01:00,
2013-01-11 14:02:00,59.9,53.7,29.97,WSW,238,6.0,12.0,80,0.00,,OVC200,0.32,VWS V14.01,2013-01-11 19:02:00,
2013-01-11 14:03:00,59.9,53.4,29.97,SSW,198,7.0,14.0,79,0.00,,OVC045,0.32,VWS V14.01,2013-01-11 19:03:00,
2013-01-11 14:04:00,59.9,53.4,29.97,WSW,248,7.0,14.0,79,0.00,,OVC045,0.32,VWS V14.01,2013-01-11 19:04:00,
2013-01-11 14:05:00,59.9,53.4,29.97,SW,218,8.0,10.0,79,0.00,,OVC045,0.32,VWS V14.01,2013-01-11 19:05:00,
2013-01-11 14:06:00,59.9,53.4,29.97,WSW,243,11.0,12.0,79,0.00,,OVC045,0.32,VWS V14.01,2013-01-11 19:06:00,
2013-01-11 14:07:00,59.9,53.4,29.97,SSW,211,11.0,12.0,79,0.00,,OVC200,0.32,VWS V14.01,2013-01-11 19:07:00,
2013-01-11 14:08:00,59.9,53.4,29.97,SW,235,11.0,15.0,79,0.00,,OVC045,0.32,VWS V14.01,2013-01-11 19:08:00,
2013-01-11 14:09:00,60.0,53.5,29.97,WSW,238,6.0,15.0,79,0.00,,OVC045,0.32,VWS V14.01,2013-01-11 19:09:00,
2013-01-11 14:10:00,60.0,53.5,29.97,WSW,244,8.0,12.0,79,0.00,,OVC045,0.32,VWS V14.01,2013-01-11 19:10:00,
2013-01-11 14:11:00,60.1,53.6,29.97,SW,214,12.0,14.0,79,0.00,,OVC045,0.32,VWS V14.01,2013-01-11 19:11:00,
2013-01-11 14:12:00,60.1,53.2,29.97,WSW,252,14.0,14.0,78,0.00,,OVC200,0.32,VWS V14.01,2013-01-11 19:12:00,
2013-01-11 14:13:00,60.2,53.3,29.97,WSW,237,10.0,14.0,78,0.00,,OVC045,0.32,VWS V14.01,2013-01-11 19:13:00,
2013-01-11 14:14:00,60.2,53.3,29.97,SSW,193,6.0,13.0,78,0.00,,OVC045,0.32,VWS V14.01,2013-01-11 19:14:00,
2013-01-11 14:15:00,60.3,53.4,29.97,WSW,256,8.0,12.0,78,0.00,,OVC045,0.32,VWS V14.01,2013-01-11 19:15:00,
2013-01-11 14:16:00,60.3,53.4,29.97,SW,233,9.0,11.0,78,0.00,,OVC045,0.32,VWS V14.01,2013-01-11 19:16:00,
2013-01-11 14:17:00,60.4,53.5,29.97,SSW,211,5.0,10.0,78,0.00,,OVC200,0.32,VWS V14.01,2013-01-11 19:17:00,
2013-01-11 14:18:00,60.5,54.0,29.97,WSW,256,10.0,12.0,79,0.00,,OVC045,0.32,VWS V14.01,2013-01-11 19:18:00,
2013-01-11 14:19:00,60.5,53.6,29.97,SW,228,8.0,16.0,78,0.00,,OVC045,0.32,VWS V14.01,2013-01-11 19:19:00,
2013-01-11 14:20:00,60.5,53.6,29.97,WSW,248,4.0,13.0,78,0.00,,OVC045,0.32,VWS V14.01,2013-01-11 19:20:00,
2013-01-11 14:21:00,60.6,53.4,29.97,SW,233,6.0,9.0,77,0.00,,OVC045,0.32,VWS V14.01,2013-01-11 19:21:00,
2013-01-11 14:22:00,60.7,53.5,29.97,WSW,249,8.0,12.0,77,0.00,,OVC200,0.32,VWS V14.01,2013-01-11 19:22:00,
2013-01-11 14:23:00,60.7,53.1,29.97,WSW,257,7.0,16.0,76,0.00,,OVC045,0.32,VWS V14.01,2013-01-11 19:23:00,
2013-01-11 14:24:00,60.7,53.1,29.97,WSW,243,9.0,11.0,76,0.00,,OVC045,0.32,VWS V14.01,2013-01-11 19:24:00,
2013-01-11 14:25:00,60.7,53.1,29.97,SSW,204,2.0,20.0,76,0.00,,OVC045,0.32,VWS V14.01,2013-01-11 19:25:00,
2013-01-11 14:26:00,60.7,52.7,29.97,West,260,7.0,12.0,75,0.00,,OVC045,0.32,VWS V14.01,2013-01-11 19:26:00,
2013-01-11 14:27:00,60.7,52.7,29.97,SSE,149,3.0,12.0,75,0.00,,OVC200,0.32,VWS V14.01,2013-01-11 19:27:00,
2013-01-11 14:28:00,60.7,53.1,29.97,WSW,243,8.0,13.0,76,0.00,,OVC045,0.32,VWS V14.01,2013-01-11 19:28:00,
2013-01-11 14:29:00,60.7,52.7,29.97,SE,129,7.0,13.0,75,0.00,,OVC045,0.32,VWS V14.01,2013-01-11 19:29:00,
2013-01-11 14:30:00,60.7,52.4,29.98,WSW,240,6.0,14.0,74,0.00,,OVC045,0.32,VWS V14.01,2013-01-11 19:30:00,
2013-01-11 14:31:00,60.7,52.7,29.97,West,260,6.0,13.0,75,0.00,,OVC045,0.32,VWS V14.01,2013-01-11 19:31:00,
2013-01-11 14:32:00,60.6,52.6,29.97,WSW,248,7.0,11.0,75,0.00,,OVC200,0.32,VWS V14.01,2013-01-11 19:32:00,
2013-01-11 14:33:00,60.6,52.6,29.97,SW,229,9.0,10.0,75,0.00,,OVC045,0.32,VWS V14.01,2013-01-11 19:33:00,
2013-01-11 14:34:00,60.6,52.6,29.97,SW,236,11.0,13.0,75,0.00,,OVC045,0.32,VWS V14.01,2013-01-11 19:34:00,
2013-01-11 14:35:00,60.5,52.5,29.97,West,280,10.0,15.0,75,0.00,,OVC045,0.32,VWS V14.01,2013-01-11 19:35:00,
2013-01-11 14:36:00,60.5,52.5,29.97,WSW,256,3.0,15.0,75,0.00,,OVC045,0.32,VWS V14.01,2013-01-11 19:36:00,
2013-01-11 14:37:00,60.4,52.5,29.97,SW,233,5.0,10.0,75,0.00,,OVC200,0.32,VWS V14.01,2013-01-11 19:37:00,
2013-01-11 14:38:00,60.4,52.5,29.97,SW,226,12.0,12.0,75,0.00,,OVC045,0.32,VWS V14.01,2013-01-11 19:38:00,
2013-01-11 14:39:00,60.3,52.7,29.97,SW,219,3.0,13.0,76,0.00,,OVC045,0.32,VWS V14.01,2013-01-11 19:39:00,
2013-01-11 14:40:00,60.2,52.6,29.97,WSW,240,8.0,8.0,76,0.00,,OVC045,0.32,VWS V14.01,2013-01-11 19:40:00,
2013-01-11 14:41:00,60.2,52.6,29.97,West,266,8.0,9.0,76,0.00,,OVC045,0.32,VWS V14.01,2013-01-11 19:41:00,
2013-01-11 14:42:00,60.2,52.3,29.97,SW,235,6.0,11.0,75,0.00,,OVC200,0.32,VWS V14.01,2013-01-11 19:42:00,
2013-01-11 14:43:00,60.1,52.2,29.97,West,274,5.0,13.0,75,0.00,,OVC045,0.32,VWS V14.01,2013-01-11 19:43:00,
2013-01-11 14:44:00,60.1,52.2,29.98,SW,214,4.0,8.0,75,0.00,,OVC045,0.32,VWS V14.01,2013-01-11 19:44:00,
2013-01-11 14:45:00,60.0,52.4,29.98,WSW,238,3.0,8.0,76,0.00,,OVC045,0.32,VWS V14.01,2013-01-11 19:45:00,
2013-01-11 14:46:00,60.0,52.4,29.98,WSW,245,3.0,7.0,76,0.00,,OVC045,0.32,VWS V14.01,2013-01-11 19:46:00,
2013-01-11 14:47:00,60.0,52.4,29.98,West,264,5.0,7.0,76,0.00,,OVC200,0.32,VWS V14.01,2013-01-11 19:47:00,
2013-01-11 14:48:00,60.0,52.4,29.98,WSW,257,9.0,9.0,76,0.00,,OVC045,0.32,VWS V14.01,2013-01-11 19:48:00,
2013-01-11 14:49:00,59.9,52.3,29.98,SSW,197,5.0,12.0,76,0.00,,OVC045,0.32,VWS V14.01,2013-01-11 19:49:00,
2013-01-11 14:50:00,59.9,52.3,29.98,SW,233,7.0,8.0,76,0.00,,OVC045,0.32,VWS V14.01,2013-01-11 19:50:00,
2013-01-11 14:51:00,59.9,52.3,29.98,WSW,257,3.0,8.0,76,0.00,,OVC045,0.32,VWS V14.01,2013-01-11 19:51:00,
2013-01-11 14:52:00,59.9,52.3,29.98,SW,233,5.0,9.0,76,0.00,,OVC200,0.32,VWS V14.01,2013-01-11 19:52:00,
2013-01-11 14:53:00,60.0,52.4,29.98,SW,222,7.0,10.0,76,0.00,,OVC045,0.32,VWS V14.01,2013-01-11 19:53:00,
2013-01-11 14:54:00,60.0,52.4,29.98,WSW,241,7.0,12.0,76,0.00,,OVC045,0.32,VWS V14.01,2013-01-11 19:54:00,
2013-01-11 14:55:00,60.0,52.4,29.98,West,276,4.0,12.0,76,0.00,,OVC045,0.32,VWS V14.01,2013-01-11 19:55:00,
2013-01-11 14:56:00,60.0,52.4,29.98,West,266,7.0,8.0,76,0.00,,OVC045,0.32,VWS V14.01,2013-01-11 19:56:00,
2013-01-11 14:57:00,60.0,52.4,29.98,SW,224,9.0,10.0,76,0.00,,OVC200,0.32,VWS V14.01,2013-01-11 19:57:00,
2013-01-11 14:58:00,60.0,52.1,29.98,West,262,7.0,13.0,75,0.00,,OVC045,0.32,VWS V14.01,2013-01-11 19:58:00,
2013-01-11 14:59:00,60.0,52.1,29.98,ESE,117,4.0,15.0,75,0.00,,OVC045,0.32,VWS V14.01,2013-01-11 19:59:00,
2013-01-11 15:00:00,60.1,52.2,29.99,WSW,248,9.0,14.0,75,0.00,,OVC045,0.32,VWS V14.01,2013-01-11 20:00:00,
2013-01-11 15:01:00,60.1,52.2,29.98,South,180,4.0,10.0,75,0.00,,OVC045,0.32,VWS V14.01,2013-01-11 20:01:00,
2013-01-11 15:02:00,60.1,52.2,29.98,WSW,245,8.0,10.0,75,0.00,,BKN200,0.32,VWS V14.01,2013-01-11 20:02:00,
2013-01-11 15:03:00,60.1,52.2,29.98,WSW,238,8.0,10.0,75,0.00,,OVC045,0.32,VWS V14.01,2013-01-11 20:03:00,
2013-01-11 15:04:00,60.1,52.2,29.98,WSW,242,5.0,11.0,75,0.00,,OVC045,0.32,VWS V14.01,2013-01-11 20:04:00,
2013-01-11 15:05:00,60.1,52.2,29.99,WSW,256,10.0,11.0,75,0.00,,OVC045,0.32,VWS V14.01,2013-01-11 20:05:00,
2013-01-11 15:06:00,60.1,51.8,29.98,SSW,198,3.0,13.0,74,0.00,,OVC045,0.32,VWS V14.01,2013-01-11 20:06:00,
2013-01-11 15:07:00,60.0,52.1,29.98,West,274,3.0,13.0,75,0.00,,BKN200,0.32,VWS V14.01,2013-01-11 20:07:00,
2013-01-11 15:08:00,60.0,52.1,29.98,West,260,8.0,10.0,75,0.00,,OVC045,0.32,VWS V14.01,2013-01-11 20:08:00,
2013-01-11 15:09:00,60.0,52.1,29.98,SW,218,8.0,13.0,75,0.00,,OVC045,0.32,VWS V14.01,2013-01-11 20:09:00,
2013-01-11 15:10:00,59.9,52.0,29.98,WSW,255,11.0,11.0,75,0.00,,OVC045,0.32,VWS V14.01,2013-01-11 20:10:00,
2013-01-11 15:11:00,59.9,52.0,29.98,West,270,8.0,14.0,75,0.00,,OVC045,0.32,VWS V14.01,2013-01-11 20:11:00,
2013-01-11 15:12:00,59.9,52.0,29.98,West,259,6.0,14.0,75,0.00,,BKN200,0.32,VWS V14.01,2013-01-11 20:12:00,
2013-01-11 15:13:00,59.9,52.0,29.99,West,267,6.0,13.0,75,0.00,,OVC045,0.32,VWS V14.01,2013-01-11 20:13:00,
2013-01-11 15:15:00,59.8,51.9,29.98,WSW,248,5.0,13.0,75,0.00,,OVC045,0.32,VWS V14.01,2013-01-11 20:15:00,
2013-01-11 15:16:00,59.8,51.5,29.98,WSW,240,4.0,14.0,74,0.00,,OVC045,0.32,VWS V14.01,2013-01-11 20:16:00,
2013-01-11 15:17:00,59.8,51.9,29.98,WSW,253,3.0,14.0,75,0.00,,BKN200,0.32,VWS V14.01,2013-01-11 20:17:00,
2013-01-11 15:18:00,59.9,52.0,29.98,WSW,255,6.0,11.0,75,0.00,,OVC045,0.32,VWS V14.01,2013-01-11 20:18:00,
2013-01-11 15:19:00,59.9,52.0,29.99,WSW,245,7.0,11.0,75,0.00,,OVC045,0.32,VWS V14.01,2013-01-11 20:19:00,
2013-01-11 15:20:00,59.9,52.0,29.99,SW,235,11.0,12.0,75,0.00,,OVC045,0.32,VWS V14.01,2013-01-11 20:20:00,
2013-01-11 15:21:00,59.8,51.9,29.99,SSW,207,12.0,16.0,75,0.00,,OVC045,0.32,VWS V14.01,2013-01-11 20:21:00,
2013-01-11 15:22:00,59.8,51.5,29.98,West,273,5.0,16.0,74,0.00,,BKN200,0.32,VWS V14.01,2013-01-11 20:22:00,
2013-01-11 15:23:00,59.7,51.4,29.99,West,278,3.0,10.0,74,0.00,,OVC045,0.32,VWS V14.01,2013-01-11 20:23:00,
2013-01-11 15:24:00,59.6,51.7,29.98,WSW,239,3.0,7.0,75,0.00,,OVC045,0.32,VWS V14.01,2013-01-11 20:24:00,
2013-01-11 15:25:00,59.6,51.7,29.98,NW,321,4.0,8.0,75,0.00,,OVC045,0.32,VWS V14.01,2013-01-11 20:25:00,
2013-01-11 15:26:00,59.6,51.7,29.98,West,262,5.0,8.0,75,0.00,,OVC045,0.32,VWS V14.01,2013-01-11 20:26:00,
2013-01-11 15:27:00,59.7,51.8,29.98,WSW,249,6.0,8.0,75,0.00,,BKN200,0.32,VWS V14.01,2013-01-11 20:27:00,
2013-01-11 15:28:00,59.7,51.4,29.98,SW,234,12.0,13.0,74,0.00,,OVC045,0.32,VWS V14.01,2013-01-11 20:28:00,
2013-01-11 15:29:00,59.7,51.4,29.98,WSW,239,12.0,13.0,74,0.00,,OVC045,0.32,VWS V14.01,2013-01-11 20:29:00,
2013-01-11 15:30:00,59.7,51.4,29.98,West,272,3.0,12.0,74,0.00,,OVC045,0.32,VWS V14.01,2013-01-11 20:30:00,
2013-01-11 15:31:00,59.7,51.4,29.99,SW,232,8.0,12.0,74,0.00,,OVC045,0.32,VWS V14.01,2013-01-11 20:31:00,
2013-01-11 15:32:00,59.7,51.4,29.99,WSW,252,5.0,12.0,74,0.00,,BKN200,0.32,VWS V14.01,2013-01-11 20:32:00,
2013-01-11 15:33:00,59.7,51.4,29.99,WSW,253,7.0,11.0,74,0.00,,OVC045,0.32,VWS V14.01,2013-01-11 20:33:00,
2013-01-11 15:34:00,59.6,51.0,29.99,West,260,5.0,12.0,73,0.00,,OVC045,0.32,VWS V14.01,2013-01-11 20:34:00,
2013-01-11 15:36:00,59.6,51.3,29.99,WSW,239,4.0,8.0,74,0.00,,OVC045,0.32,VWS V14.01,2013-01-11 20:36:00,
2013-01-11 15:37:00,59.5,51.2,29.99,WSW,246,6.0,8.0,74,0.00,,BKN200,0.32,VWS V14.01,2013-01-11 20:37:00,
2013-01-11 15:38:00,59.5,51.2,29.99,West,269,4.0,8.0,74,0.00,,OVC045,0.32,VWS V14.01,2013-01-11 20:38:00,
2013-01-11 15:39:00,59.5,51.6,29.99,WSW,243,4.0,5.0,75,0.00,,OVC045,0.32,VWS V14.01,2013-01-11 20:39:00,
2013-01-11 15:40:00,59.5,51.2,29.99,WSW,243,9.0,10.0,74,0.00,,OVC045,0.32,VWS V14.01,2013-01-11 20:40:00,
2013-01-11 15:41:00,59.5,51.2,29.99,West,274,3.0,10.0,74,0.00,,OVC045,0.32,VWS V14.01,2013-01-11 20:41:00,
2013-01-11 15:42:00,59.5,51.6,29.99,SW,214,3.0,10.0,75,0.00,,BKN200,0.32,VWS V14.01,2013-01-11 20:42:00,
2013-01-11 15:43:00,59.5,51.6,29.99,SW,217,6.0,8.0,75,0.00,,OVC045,0.32,VWS V14.01,2013-01-11 20:43:00,
2013-01-11 15:44:00,59.5,51.6,29.99,WSW,246,4.0,10.0,75,0.00,,OVC045,0.32,VWS V14.01,2013-01-11 20:44:00,
2013-01-11 15:45:00,59.6,51.7,29.99,West,273,3.0,7.0,75,0.00,,OVC045,0.32,VWS V14.01,2013-01-11 20:45:00,
2013-01-11 15:46:00,59.7,51.8,29.99,WSW,238,6.0,6.0,75,0.00,,OVC045,0.32,VWS V14.01,2013-01-11 20:46:00,
2013-01-11 15:47:00,59.7,51.4,29.99,WSW,245,4.0,8.0,74,0.00,,BKN200,0.32,VWS V14.01,2013-01-11 20:47:00,
2013-01-11 15:48:00,59.9,51.6,29.99,SW,221,4.0,9.0,74,0.00,,OVC045,0.32,VWS V14.01,2013-01-11 20:48:00,
2013-01-11 15:49:00,60.1,51.4,29.99,SW,224,2.0,9.0,73,0.00,,OVC045,0.32,VWS V14.01,2013-01-11 20:49:00,
2013-01-11 15:50:00,60.2,51.5,29.99,SSW,201,3.0,7.0,73,0.00,,OVC045,0.32,VWS V14.01,2013-01-11 20:50:00,
2013-01-11 15:51:00,60.4,51.7,29.99,WSW,252,3.0,10.0,73,0.00,,OVC045,0.32,VWS V14.01,2013-01-11 20:51:00,
2013-01-11 15:52:00,60.4,51.3,29.99,WSW,248,2.0,10.0,72,0.00,,BKN200,0.32,VWS V14.01,2013-01-11 20:52:00,
2013-01-11 15:53:00,60.6,51.5,29.99,West,266,3.0,6.0,72,0.00,,OVC045,0.32,VWS V14.01,2013-01-11 20:53:00,
2013-01-11 15:54:00,60.8,51.7,29.99,WSW,249,8.0,8.0,72,0.00,,OVC045,0.32,VWS V14.01,2013-01-11 20:54:00,
2013-01-11 15:55:00,60.9,51.5,29.99,WSW,257,4.0,10.0,71,0.00,,OVC045,0.32,VWS V14.01,2013-01-11 20:55:00,
2013-01-11 15:56:00,61.0,51.9,29.99,ESE,110,2.0,9.0,72,0.00,,OVC045,0.32,VWS V14.01,2013-01-11 20:56:00,
2013-01-11 15:57:00,61.1,51.6,29.99,WSW,250,7.0,7.0,71,0.00,,BKN200,0.32,VWS V14.01,2013-01-11 20:57:00,
2013-01-11 15:58:00,61.3,51.8,29.99,WSW,246,3.0,7.0,71,0.00,,OVC045,0.32,VWS V14.01,2013-01-11 20:58:00,
2013-01-11 15:59:00,61.2,51.7,29.99,WSW,256,8.0,12.0,71,0.00,,OVC045,0.32,VWS V14.01,2013-01-11 20:59:00,
2013-01-11 16:00:00,61.2,51.7,29.99,WSW,250,3.0,12.0,71,0.00,,OVC045,0.32,VWS V14.01,2013-01-11 21:00:00,
2013-01-11 16:01:00,61.2,51.7,29.99,WSW,238,6.0,8.0,71,0.00,,OVC045,0.32,VWS V14.01,2013-01-11 21:01:00,
2013-01-11 16:02:00,61.2,51.7,29.99,SW,233,3.0,8.0,71,0.00,,OVC045,0.32,VWS V14.01,2013-01-11 21:02:00,
2013-01-11 16:03:00,61.2,51.3,29.99,WSW,248,4.0,6.0,70,0.00,,OVC045,0.32,VWS V14.01,2013-01-11 21:03:00,
2013-01-11 16:04:00,61.2,51.7,29.99,West,270,3.0,6.0,71,0.00,,OVC045,0.32,VWS V14.01,2013-01-11 21:04:00,
2013-01-11 16:14:00,61.2,51.3,30.00,WSW,248,6.0,10.0,70,0.00,,OVC045,0.32,VWS V14.01,2013-01-11 21:14:00,
2013-01-11 16:19:00,60.4,50.6,30.00,WSW,239,9.0,11.0,70,0.00,,OVC045,0.32,VWS V14.01,2013-01-11 21:19:00,
2013-01-11 16:24:00,60.0,50.6,30.00,WSW,246,8.0,12.0,71,0.00,,OVC045,0.32,VWS V14.01,2013-01-11 21:24:00,
2013-01-11 16:29:00,59.7,51.0,30.00,SW,229,6.0,8.0,73,0.00,,OVC045,0.32,VWS V14.01,2013-01-11 21:29:00,
2013-01-11 16:34:00,59.6,51.0,30.01,WSW,249,4.0,10.0,73,0.00,,OVC045,0.32,VWS V14.01,2013-01-11 21:34:00,
2013-01-11 16:39:00,59.3,50.7,30.00,West,273,5.0,11.0,73,0.00,,OVC045,0.32,VWS V14.01,2013-01-11 21:39:00,
2013-01-11 16:44:00,59.0,50.4,30.00,South,183,3.0,6.0,73,0.00,,OVC045,0.32,VWS V14.01,2013-01-11 21:44:00,
2013-01-11 16:49:00,58.6,50.3,30.00,WSW,250,6.0,9.0,74,0.00,,OVC045,0.32,VWS V14.01,2013-01-11 21:49:00,
2013-01-11 16:54:00,58.4,50.5,30.00,SW,222,1.0,5.0,75,0.00,,OVC045,0.32,VWS V14.01,2013-01-11 21:54:00,
2013-01-11 16:59:00,58.1,50.2,30.00,SW,224,3.0,5.0,75,0.00,,OVC045,0.32,VWS V14.01,2013-01-11 21:59:00,
2013-01-11 17:04:00,57.9,50.4,30.01,SSW,212,3.0,4.0,76,0.00,,OVC250,0.32,VWS V14.01,2013-01-11 22:04:00,
2013-01-11 17:09:00,57.6,50.1,30.01,WSW,256,3.0,3.0,76,0.00,,OVC250,0.32,VWS V14.01,2013-01-11 22:09:00,
2013-01-11 17:14:00,57.3,50.2,30.00,SSW,200,2.0,2.0,77,0.00,,OVC250,0.32,VWS V14.01,2013-01-11 22:14:00,
2013-01-11 17:19:00,57.1,50.3,30.00,SSW,207,3.0,3.0,78,0.00,,OVC250,0.32,VWS V14.01,2013-01-11 22:19:00,
2013-01-11 17:24:00,56.9,50.1,30.00,SSW,210,2.0,4.0,78,0.00,,OVC250,0.32,VWS V14.01,2013-01-11 22:24:00,
2013-01-11 17:29:00,56.7,50.3,30.01,SSW,212,1.0,2.0,79,0.00,,OVC250,0.32,VWS V14.01,2013-01-11 22:29:00,
2013-01-11 17:34:00,56.4,50.0,30.01,SW,221,2.0,2.0,79,0.00,,OVC250,0.32,VWS V14.01,2013-01-11 22:34:00,
2013-01-11 17:39:00,56.2,50.1,30.01,SSW,207,2.0,2.0,80,0.00,,OVC250,0.32,VWS V14.01,2013-01-11 22:39:00,
2013-01-11 17:44:00,55.9,49.8,30.01,SSW,201,1.0,2.0,80,0.00,,OVC250,0.32,VWS V14.01,2013-01-11 22:44:00,
2013-01-11 17:49:00,55.7,50.0,30.00,South,179,1.0,2.0,81,0.00,,OVC250,0.32,VWS V14.01,2013-01-11 22:49:00,
2013-01-11 17:54:00,55.3,49.9,30.01,South,191,1.0,2.0,82,0.00,,OVC250,0.32,VWS V14.01,2013-01-11 22:54:00,
2013-01-11 17:59:00,55.2,49.8,30.01,South,177,1.0,2.0,82,0.00,,OVC250,0.32,VWS V14.01,2013-01-11 22:59:00,
2013-01-11 18:04:00,54.9,49.5,30.01,SSE,149,0.0,1.0,82,0.00,,BKN250,0.32,VWS V14.01,2013-01-11 23:04:00,
2013-01-11 18:09:00,54.5,49.5,30.01,SSE,148,0.0,1.0,83,0.00,,BKN250,0.32,VWS V14.01,2013-01-11 23:09:00,
2013-01-11 18:14:00,54.1,49.4,30.01,SSE,148,0.0,0.0,84,0.00,,BKN250,0.32,VWS V14.01,2013-01-11 23:14:00,
2013-01-11 18:19:00,53.8,49.4,30.01,SE,130,1.0,1.0,85,0.00,,BKN250,0.32,VWS V14.01,2013-01-11 23:19:00,
2013-01-11 18:24:00,53.6,49.2,30.01,SE,131,1.0,1.0,85,0.00,,BKN250,0.32,VWS V14.01,2013-01-11 23:24:00,
2013-01-11 18:29:00,53.4,49.3,30.01,SE,146,1.0,2.0,86,0.00,,BKN250,0.32,VWS V14.01,2013-01-11 23:29:00,
2013-01-11 18:34:00,53.3,49.2,30.02,SSE,147,0.0,1.0,86,0.00,,BKN250,0.32,VWS V14.01,2013-01-11 23:34:00,
2013-01-11 18:39:00,53.1,49.0,30.02,SE,134,0.0,1.0,86,0.00,,BKN250,0.32,VWS V14.01,2013-01-11 23:39:00,
2013-01-11 18:44:00,52.9,49.1,30.02,SE,140,1.0,2.0,87,0.00,,BKN250,0.32,VWS V14.01,2013-01-11 23:44:00,
2013-01-11 18:49:00,52.8,49.0,30.02,SE,139,0.0,0.0,87,0.00,,BKN250,0.32,VWS V14.01,2013-01-11 23:49:00,
2013-01-11 18:54:00,52.4,48.7,30.02,SE,138,0.0,0.0,87,0.00,,BKN250,0.32,VWS V14.01,2013-01-11 23:54:00,
2013-01-11 18:59:00,52.1,48.7,30.02,SE,138,0.0,1.0,88,0.00,,BKN250,0.32,VWS V14.01,2013-01-11 23:59:00,
2013-01-11 19:04:00,51.8,48.4,30.02,SE,139,0.0,0.0,88,0.00,,BKN250,0.32,VWS V14.01,2013-01-12 00:04:00,
2013-01-11 19:09:00,51.5,48.4,30.02,SE,138,0.0,1.0,89,0.00,,BKN250,0.32,VWS V14.01,2013-01-12 00:09:00,
2013-01-11 19:14:00,51.2,48.1,30.03,SE,138,0.0,0.0,89,0.00,,BKN250,0.32,VWS V14.01,2013-01-12 00:14:00,
2013-01-11 19:19:00,50.6,47.5,30.02,SE,138,0.0,0.0,89,0.00,,BKN250,0.32,VWS V14.01,2013-01-12 00:19:00,
2013-01-11 19:24:00,49.9,47.1,30.02,SE,139,1.0,1.0,90,0.00,,BKN250,0.32,VWS V14.01,2013-01-12 00:24:00,
2013-01-11 19:29:00,49.3,46.8,30.03,East,79,1.0,1.0,91,0.00,,BKN250,0.32,VWS V14.01,2013-01-12 00:29:00,
2013-01-11 19:34:00,49.0,46.8,30.03,East,91,1.0,2.0,92,0.00,,BKN250,0.32,VWS V14.01,2013-01-12 00:34:00,
2013-01-11 19:39:00,48.7,46.5,30.03,East,89,1.0,1.0,92,0.00,,BKN250,0.32,VWS V14.01,2013-01-12 00:39:00,
2013-01-11 19:44:00,48.8,46.9,30.02,East,101,1.0,2.0,93,0.00,,BKN250,0.32,VWS V14.01,2013-01-12 00:44:00,
2013-01-11 19:49:00,49.0,47.1,30.02,ESE,113,2.0,2.0,93,0.00,,BKN250,0.32,VWS V14.01,2013-01-12 00:49:00,
2013-01-11 19:54:00,49.3,47.7,30.02,ESE,119,1.0,2.0,94,0.00,,BKN250,0.32,VWS V14.01,2013-01-12 00:54:00,
2013-01-11 19:59:00,49.3,47.4,30.02,ESE,121,2.0,2.0,93,0.00,,BKN250,0.32,VWS V14.01,2013-01-12 00:59:00,
2013-01-11 20:04:00,49.4,47.5,30.02,ESE,118,2.0,2.0,93,0.00,,FEW250,0.32,VWS V14.01,2013-01-12 01:04:00,
2013-01-11 20:09:00,49.6,47.7,30.02,ESE,109,1.0,1.0,93,0.00,,FEW250,0.32,VWS V14.01,2013-01-12 01:09:00,
2013-01-11 20:14:00,49.6,47.4,30.02,ESE,105,1.0,1.0,92,0.00,,FEW250,0.32,VWS V14.01,2013-01-12 01:14:00,
2013-01-11 20:19:00,49.1,46.9,30.02,ENE,76,1.0,2.0,92,0.00,,FEW250,0.32,VWS V14.01,2013-01-12 01:19:00,
2013-01-11 20:24:00,48.5,46.3,30.02,East,96,2.0,2.0,92,0.00,,FEW250,0.32,VWS V14.01,2013-01-12 01:24:00,
2013-01-11 20:29:00,48.2,46.3,30.02,East,84,2.0,2.0,93,0.00,,FEW250,0.32,VWS V14.01,2013-01-12 01:29:00,
2013-01-11 20:34:00,48.4,46.8,30.02,East,85,2.0,2.0,94,0.00,,FEW250,0.32,VWS V14.01,2013-01-12 01:34:00,
2013-01-11 20:39:00,48.6,47.0,30.02,East,88,2.0,2.0,94,0.00,,FEW250,0.32,VWS V14.01,2013-01-12 01:39:00,
2013-01-11 20:44:00,48.7,46.8,30.02,East,97,1.0,2.0,93,0.00,,FEW250,0.32,VWS V14.01,2013-01-12 01:44:00,
2013-01-11 20:49:00,48.6,47.0,30.02,East,101,1.0,2.0,94,0.00,,FEW250,0.32,VWS V14.01,2013-01-12 01:49:00,
2013-01-11 20:54:00,48.5,46.6,30.02,ESE,109,1.0,2.0,93,0.00,,FEW250,0.32,VWS V14.01,2013-01-12 01:54:00,
2013-01-11 20:59:00,48.5,46.9,30.02,East,96,1.0,2.0,94,0.00,,FEW250,0.32,VWS V14.01,2013-01-12 01:59:00,
2013-01-11 21:04:00,48.3,46.7,30.02,East,89,1.0,2.0,94,0.00,,FEW150,0.32,VWS V14.01,2013-01-12 02:04:00,
2013-01-11 21:09:00,48.2,46.6,30.02,East,97,3.0,4.0,94,0.00,,FEW150,0.32,VWS V14.01,2013-01-12 02:09:00,
2013-01-11 21:14:00,48.1,46.5,30.02,East,82,3.0,4.0,94,0.00,,FEW150,0.32,VWS V14.01,2013-01-12 02:14:00,
2013-01-11 21:19:00,48.1,46.5,30.02,ESE,110,3.0,3.0,94,0.00,,FEW150,0.32,VWS V14.01,2013-01-12 02:19:00,
2013-01-11 21:24:00,48.3,46.7,30.02,East,91,2.0,3.0,94,0.00,,FEW150,0.32,VWS V14.01,2013-01-12 02:24:00,
2013-01-11 21:29:00,48.4,46.8,30.02,East,98,1.0,3.0,94,0.00,,FEW150,0.32,VWS V14.01,2013-01-12 02:29:00,
2013-01-11 21:34:00,48.4,46.8,30.02,NE,53,1.0,2.0,94,0.00,,FEW150,0.32,VWS V14.01,2013-01-12 02:34:00,
2013-01-11 21:39:00,48.4,46.8,30.03,East,86,1.0,3.0,94,0.00,,FEW150,0.32,VWS V14.01,2013-01-12 02:39:00,
2013-01-11 21:44:00,48.5,46.9,30.03,ESE,105,1.0,3.0,94,0.00,,FEW150,0.32,VWS V14.01,2013-01-12 02:44:00,
2013-01-11 21:49:00,48.4,46.8,30.03,East,96,1.0,3.0,94,0.00,,FEW150,0.32,VWS V14.01,2013-01-12 02:49:00,
2013-01-11 21:54:00,48.4,46.8,30.02,East,100,4.0,4.0,94,0.00,,FEW150,0.32,VWS V14.01,2013-01-12 02:54:00,
2013-01-11 21:59:00,48.4,46.8,30.02,East,91,2.0,2.0,94,0.00,,FEW150,0.32,VWS V14.01,2013-01-12 02:59:00,
2013-01-11 22:04:00,48.4,46.8,30.02,East,94,2.0,3.0,94,0.00,,SCT150,0.32,VWS V14.01,2013-01-12 03:04:00,
2013-01-11 22:09:00,48.5,46.6,30.02,East,94,1.0,2.0,93,0.00,,SCT150,0.32,VWS V14.01,2013-01-12 03:09:00,
2013-01-11 22:14:00,48.4,46.5,30.03,East,89,2.0,2.0,93,0.00,,SCT150,0.32,VWS V14.01,2013-01-12 03:14:00,
2013-01-11 22:19:00,48.4,46.5,30.03,East,100,1.0,2.0,93,0.00,,SCT150,0.32,VWS V14.01,2013-01-12 03:19:00,
2013-01-11 22:24:00,48.4,46.5,30.03,East,84,2.0,2.0,93,0.00,,SCT150,0.32,VWS V14.01,2013-01-12 03:24:00,
2013-01-11 22:29:00,48.3,46.4,30.02,East,90,2.0,2.0,93,0.00,,SCT150,0.32,VWS V14.01,2013-01-12 03:29:00,
2013-01-11 22:34:00,48.3,46.4,30.02,East,96,2.0,3.0,93,0.00,,SCT150,0.32,VWS V14.01,2013-01-12 03:34:00,
2013-01-11 22:39:00,48.3,46.1,30.02,East,85,1.0,2.0,92,0.00,,SCT150,0.32,VWS V14.01,2013-01-12 03:39:00,
2013-01-11 22:44:00,48.3,46.1,30.02,East,97,1.0,2.0,92,0.00,,SCT150,0.32,VWS V14.01,2013-01-12 03:44:00,
2013-01-11 22:49:00,48.5,46.3,30.02,ESE,110,1.0,1.0,92,0.00,,SCT150,0.32,VWS V14.01,2013-01-12 03:49:00,
2013-01-11 22:54:00,48.8,46.3,30.02,ESE,113,2.0,2.0,91,0.00,,SCT150,0.32,VWS V14.01,2013-01-12 03:54:00,
2013-01-11 22:59:00,49.2,46.4,30.02,ESE,105,1.0,2.0,90,0.00,,SCT150,0.32,VWS V14.01,2013-01-12 03:59:00,
2013-01-11 23:04:00,49.6,46.5,30.02,ESE,110,1.0,1.0,89,0.00,,FEW250,0.32,VWS V14.01,2013-01-12 04:04:00,
2013-01-11 23:09:00,49.8,46.7,30.01,ESE,117,1.0,2.0,89,0.00,,FEW250,0.32,VWS V14.01,2013-01-12 04:09:00,
2013-01-11 23:14:00,50.1,47.0,30.02,ESE,113,0.0,2.0,89,0.00,,FEW250,0.32,VWS V14.01,2013-01-12 04:14:00,
2013-01-11 23:19:00,50.6,47.2,30.01,SE,136,1.0,2.0,88,0.00,,FEW250,0.32,VWS V14.01,2013-01-12 04:19:00,
2013-01-11 23:24:00,51.2,47.8,30.01,SE,145,1.0,2.0,88,0.00,,FEW250,0.32,VWS V14.01,2013-01-12 04:24:00,
2013-01-11 23:29:00,51.6,47.9,30.01,SE,129,1.0,2.0,87,0.00,,FEW250,0.32,VWS V14.01,2013-01-12 04:29:00,
2013-01-11 23:34:00,51.9,48.2,30.01,SE,132,3.0,4.0,87,0.00,,FEW250,0.32,VWS V14.01,2013-01-12 04:34:00,
2013-01-11 23:39:00,52.4,48.7,30.01,SE,127,0.0,2.0,87,0.00,,FEW250,0.32,VWS V14.01,2013-01-12 04:39:00,
2013-01-11 23:44:00,52.5,48.8,30.01,SSW,197,1.0,2.0,87,0.00,,FEW250,0.32,VWS V14.01,2013-01-12 04:44:00,
2013-01-11 23:49:00,52.8,49.0,30.01,SE,131,2.0,3.0,87,0.00,,FEW250,0.32,VWS V14.01,2013-01-12 04:49:00,
2013-01-11 23:54:00,52.8,49.7,30.01,South,191,5.0,5.0,89,0.00,,FEW250,0.32,VWS V14.01,2013-01-12 04:54:00,
2013-01-11 23:59:00,53.2,50.0,30.01,SSE,159,4.0,5.0,89,0.00,,FEW250,0.32,VWS V14.01,2013-01-12 04:59:00,